Time,TemperatureF,DewpointF,PressureIn,WindDirection,WindDirectionDegrees,WindSpeedMPH,WindSpeedGustMPH,Humidity,HourlyPrecipIn,Conditions,Clouds,dailyrainin,SoftwareType,DateUTC
2013-06-18 00:00:00,65.3,53.3,29.88,NE,45,3.4,5.1,65,0.00,,,0.00,WUHU216HW,2013-06-18 06:00:00,
2013-06-18 00:01:00,65.2,53.1,29.88,NE,45,2.9,5.1,65,0.00,,,0.00,WUHU216HW,2013-06-18 06:01:00,
2013-06-18 00:03:00,65.2,53.1,29.88,NE,45,4.3,4.5,65,0.00,,,0.00,WUHU216HW,2013-06-18 06:03:00,
2013-06-18 00:04:00,65.2,52.7,29.88,NE,45,4.0,4.5,64,0.00,,,0.00,WUHU216HW,2013-06-18 06:04:00,
2013-06-18 00:05:00,65.2,53.1,29.88,East,90,3.8,4.5,65,0.00,,,0.00,WUHU216HW,2013-06-18 06:05:00,
2013-06-18 00:06:00,65.2,53.1,29.88,East,90,3.8,4.5,65,0.00,,,0.00,WUHU216HW,2013-06-18 06:06:00,
2013-06-18 00:08:00,64.8,52.8,29.88,NNE,23,2.0,4.3,65,0.00,,,0.00,WUHU216HW,2013-06-18 06:08:00,
2013-06-18 00:09:00,64.8,52.8,29.88,ENE,68,3.6,4.3,65,0.00,,,0.00,WUHU216HW,2013-06-18 06:09:00,
2013-06-18 00:11:00,64.8,52.8,29.88,ENE,68,0.7,4.3,65,0.00,,,0.00,WUHU216HW,2013-06-18 06:11:00,
2013-06-18 00:12:00,64.8,52.8,29.88,ENE,68,1.6,4.3,65,0.00,,,0.00,WUHU216HW,2013-06-18 06:12:00,
2013-06-18 00:13:00,64.6,52.6,29.88,NE,45,4.5,4.5,65,0.00,,,0.00,WUHU216HW,2013-06-18 06:13:00,
2013-06-18 00:15:00,64.6,52.6,29.87,NE,45,2.5,4.5,65,0.00,,,0.00,WUHU216HW,2013-06-18 06:15:00,
2013-06-18 00:16:00,64.6,52.6,29.88,ENE,68,2.5,4.5,65,0.00,,,0.00,WUHU216HW,2013-06-18 06:16:00,
2013-06-18 00:17:00,64.6,53.0,29.87,NE,45,4.0,4.5,66,0.00,,,0.00,WUHU216HW,2013-06-18 06:17:00,
2013-06-18 00:18:00,64.4,52.8,29.87,NNE,23,2.7,4.5,66,0.00,,,0.00,WUHU216HW,2013-06-18 06:18:00,
2013-06-18 00:20:00,64.4,52.8,29.87,ENE,68,4.0,4.5,66,0.00,,,0.00,WUHU216HW,2013-06-18 06:20:00,
2013-06-18 00:21:00,64.4,52.8,29.87,NE,45,4.0,4.5,66,0.00,,,0.00,WUHU216HW,2013-06-18 06:21:00,
2013-06-18 00:22:00,64.4,52.8,29.87,NE,45,5.1,5.1,66,0.00,,,0.00,WUHU216HW,2013-06-18 06:22:00,
2013-06-18 00:23:00,64.4,52.8,29.87,NE,45,4.3,5.1,66,0.00,,,0.00,WUHU216HW,2013-06-18 06:23:00,
2013-06-18 00:25:00,64.4,52.8,29.87,NE,45,5.6,5.6,66,0.00,,,0.00,WUHU216HW,2013-06-18 06:25:00,
2013-06-18 00:27:00,64.4,52.8,29.87,ENE,68,1.8,5.6,66,0.00,,,0.00,WUHU216HW,2013-06-18 06:27:00,
2013-06-18 00:29:00,64.4,52.8,29.87,ENE,68,2.5,5.6,66,0.00,,,0.00,WUHU216HW,2013-06-18 06:29:00,
2013-06-18 00:31:00,64.4,52.8,29.87,East,90,4.9,5.6,66,0.00,,,0.00,WUHU216HW,2013-06-18 06:31:00,
2013-06-18 00:32:00,64.3,52.7,29.87,NE,45,3.6,5.6,66,0.00,,,0.00,WUHU216HW,2013-06-18 06:32:00,
2013-06-18 00:34:00,64.3,52.7,29.86,ENE,68,2.0,5.6,66,0.00,,,0.00,WUHU216HW,2013-06-18 06:34:00,
2013-06-18 00:36:00,64.1,52.5,29.87,NE,45,2.5,5.6,66,0.00,,,0.00,WUHU216HW,2013-06-18 06:36:00,
2013-06-18 00:37:00,64.1,52.5,29.87,NE,45,2.9,5.6,66,0.00,,,0.00,WUHU216HW,2013-06-18 06:37:00,
2013-06-18 00:38:00,64.1,52.5,29.86,NNE,23,0.4,5.6,66,0.00,,,0.00,WUHU216HW,2013-06-18 06:38:00,
2013-06-18 00:39:00,64.1,52.5,29.86,South,180,0.7,5.6,66,0.00,,,0.00,WUHU216HW,2013-06-18 06:39:00,
2013-06-18 00:41:00,64.1,52.5,29.86,NNE,23,1.1,3.6,66,0.00,,,0.00,WUHU216HW,2013-06-18 06:41:00,
2013-06-18 00:42:00,63.9,52.3,29.87,NNE,23,3.4,3.4,66,0.00,,,0.00,WUHU216HW,2013-06-18 06:42:00,
2013-06-18 00:43:00,64.1,52.5,29.86,SE,135,1.1,3.4,66,0.00,,,0.00,WUHU216HW,2013-06-18 06:43:00,
2013-06-18 00:44:00,63.9,51.8,29.86,SE,135,1.6,3.4,65,0.00,,,0.00,WUHU216HW,2013-06-18 06:44:00,
2013-06-18 00:46:00,63.9,51.8,29.87,NE,45,1.3,3.4,65,0.00,,,0.00,WUHU216HW,2013-06-18 06:46:00,
2013-06-18 00:47:00,63.9,51.8,29.86,SSW,203,0.4,3.4,65,0.00,,,0.00,WUHU216HW,2013-06-18 06:47:00,
2013-06-18 00:48:00,63.9,51.8,29.86,SSW,203,0.4,3.4,65,0.00,,,0.00,WUHU216HW,2013-06-18 06:48:00,
2013-06-18 00:49:00,63.9,52.3,29.86,NNE,23,2.5,3.4,66,0.00,,,0.00,WUHU216HW,2013-06-18 06:49:00,
2013-06-18 00:52:00,63.9,51.8,29.86,ENE,68,0.9,3.1,65,0.00,,,0.00,WUHU216HW,2013-06-18 06:52:00,
2013-06-18 00:53:00,63.9,52.3,29.86,ENE,68,2.9,3.1,66,0.00,,,0.00,WUHU216HW,2013-06-18 06:53:00,
2013-06-18 00:55:00,63.7,52.1,29.86,ENE,68,1.1,3.1,66,0.00,,,0.00,WUHU216HW,2013-06-18 06:55:00,
2013-06-18 00:58:00,63.7,52.1,29.86,NE,45,0.9,3.1,66,0.00,,,0.00,WUHU216HW,2013-06-18 06:58:00,
2013-06-18 01:00:00,63.7,51.7,29.86,SE,135,0.0,2.9,65,0.00,,,0.00,WUHU216HW,2013-06-18 07:00:00,
2013-06-18 01:03:00,63.7,51.7,29.86,ENE,68,0.4,1.8,65,0.00,,,0.00,WUHU216HW,2013-06-18 07:03:00,
2013-06-18 01:04:00,63.5,51.6,29.86,ENE,68,0.0,1.8,65,0.00,,,0.00,WUHU216HW,2013-06-18 07:04:00,
2013-06-18 01:05:00,63.5,51.6,29.86,NE,45,0.7,1.1,65,0.00,,,0.00,WUHU216HW,2013-06-18 07:05:00,
2013-06-18 01:08:00,63.5,51.6,29.86,SSE,158,2.0,2.0,65,0.00,,,0.00,WUHU216HW,2013-06-18 07:08:00,
2013-06-18 01:09:00,63.5,51.6,29.86,SE,135,0.4,2.0,65,0.00,,,0.00,WUHU216HW,2013-06-18 07:09:00,
2013-06-18 01:10:00,63.4,51.4,29.86,ESE,113,1.6,2.0,65,0.00,,,0.00,WUHU216HW,2013-06-18 07:10:00,
2013-06-18 01:13:00,63.4,51.8,29.85,NE,45,2.5,2.5,66,0.00,,,0.00,WUHU216HW,2013-06-18 07:13:00,
2013-06-18 01:14:00,63.2,51.6,29.85,SE,135,0.7,2.5,66,0.00,,,0.00,WUHU216HW,2013-06-18 07:14:00,
2013-06-18 01:15:00,63.2,51.6,29.86,SSE,158,1.1,2.5,66,0.00,,,0.00,WUHU216HW,2013-06-18 07:15:00,
2013-06-18 01:18:00,63.0,51.4,29.86,NE,45,0.9,2.5,66,0.00,,,0.00,WUHU216HW,2013-06-18 07:18:00,
2013-06-18 01:19:00,63.0,51.4,29.86,NE,45,0.0,2.5,66,0.00,,,0.00,WUHU216HW,2013-06-18 07:19:00,
2013-06-18 01:20:00,63.0,51.4,29.85,NE,45,0.0,2.5,66,0.00,,,0.00,WUHU216HW,2013-06-18 07:20:00,
2013-06-18 01:23:00,62.8,51.3,29.85,East,90,1.6,1.6,66,0.00,,,0.00,WUHU216HW,2013-06-18 07:23:00,
2013-06-18 01:24:00,62.8,51.7,29.85,ENE,68,1.1,1.6,67,0.00,,,0.00,WUHU216HW,2013-06-18 07:24:00,
2013-06-18 01:25:00,62.6,51.5,29.85,SE,135,0.9,1.6,67,0.00,,,0.00,WUHU216HW,2013-06-18 07:25:00,
2013-06-18 01:28:00,62.6,51.5,29.85,NNE,23,0.7,1.6,67,0.00,,,0.00,WUHU216HW,2013-06-18 07:28:00,
2013-06-18 01:29:00,62.6,51.5,29.85,NNE,23,0.7,1.6,67,0.00,,,0.00,WUHU216HW,2013-06-18 07:29:00,
2013-06-18 01:31:00,62.6,51.5,29.85,ESE,113,0.4,1.6,67,0.00,,,0.00,WUHU216HW,2013-06-18 07:31:00,
2013-06-18 01:33:00,62.5,52.2,29.85,SE,135,1.8,1.8,69,0.00,,,0.00,WUHU216HW,2013-06-18 07:33:00,
2013-06-18 01:34:00,62.5,52.2,29.85,NE,45,4.3,4.3,69,0.00,,,0.00,WUHU216HW,2013-06-18 07:34:00,
2013-06-18 01:36:00,62.6,52.3,29.85,SE,135,0.9,4.3,69,0.00,,,0.00,WUHU216HW,2013-06-18 07:36:00,
2013-06-18 01:38:00,62.6,52.3,29.85,NNE,23,1.8,4.3,69,0.00,,,0.00,WUHU216HW,2013-06-18 07:38:00,
2013-06-18 01:39:00,62.6,52.3,29.85,NE,45,3.4,4.3,69,0.00,,,0.00,WUHU216HW,2013-06-18 07:39:00,
2013-06-18 01:41:00,62.6,52.3,29.85,NE,45,3.4,4.3,69,0.00,,,0.00,WUHU216HW,2013-06-18 07:41:00,
2013-06-18 01:44:00,62.8,51.7,29.85,WSW,248,0.4,4.3,67,0.00,,,0.00,WUHU216HW,2013-06-18 07:44:00,
2013-06-18 01:45:00,62.8,52.1,29.85,ENE,68,3.8,3.8,68,0.00,,,0.00,WUHU216HW,2013-06-18 07:45:00,
2013-06-18 01:47:00,62.8,52.1,29.85,NE,45,6.3,6.3,68,0.00,,,0.00,WUHU216HW,2013-06-18 07:47:00,
2013-06-18 01:49:00,63.0,52.3,29.84,NNE,23,2.5,6.3,68,0.00,,,0.00,WUHU216HW,2013-06-18 07:49:00,
2013-06-18 01:50:00,63.2,52.5,29.85,NE,45,4.7,6.3,68,0.00,,,0.00,WUHU216HW,2013-06-18 07:50:00,
2013-06-18 01:52:00,63.5,52.4,29.84,SSE,158,0.7,6.3,67,0.00,,,0.00,WUHU216HW,2013-06-18 07:52:00,
2013-06-18 01:54:00,63.7,52.1,29.84,ESE,113,1.1,6.3,66,0.00,,,0.00,WUHU216HW,2013-06-18 07:54:00,
2013-06-18 01:55:00,63.5,51.9,29.84,NW,315,3.4,6.3,66,0.00,,,0.00,WUHU216HW,2013-06-18 07:55:00,
2013-06-18 01:57:00,63.5,51.9,29.85,SW,225,1.1,5.8,66,0.00,,,0.00,WUHU216HW,2013-06-18 07:57:00,
2013-06-18 01:59:00,63.5,51.6,29.84,SW,225,4.0,4.7,65,0.00,,,0.00,WUHU216HW,2013-06-18 07:59:00,
2013-06-18 02:00:00,63.5,51.9,29.84,WNW,293,2.9,4.0,66,0.00,,,0.00,WUHU216HW,2013-06-18 08:00:00,
2013-06-18 02:03:00,63.5,51.9,29.84,NNE,23,0.0,4.0,66,0.00,,,0.00,WUHU216HW,2013-06-18 08:03:00,
2013-06-18 02:04:00,63.5,51.6,29.85,North,0,0.9,4.0,65,0.00,,,0.00,WUHU216HW,2013-06-18 08:04:00,
2013-06-18 02:05:00,63.5,51.9,29.85,NNE,23,2.9,4.0,66,0.00,,,0.00,WUHU216HW,2013-06-18 08:05:00,
2013-06-18 02:06:00,63.5,51.9,29.85,NNE,23,2.9,4.0,66,0.00,,,0.00,WUHU216HW,2013-06-18 08:06:00,
2013-06-18 02:08:00,63.5,51.6,29.85,SSW,203,0.9,4.0,65,0.00,,,0.00,WUHU216HW,2013-06-18 08:08:00,
2013-06-18 02:10:00,63.5,51.6,29.85,North,0,1.1,2.9,65,0.00,,,0.00,WUHU216HW,2013-06-18 08:10:00,
2013-06-18 02:11:00,63.5,51.6,29.85,North,0,0.7,2.9,65,0.00,,,0.00,WUHU216HW,2013-06-18 08:11:00,
2013-06-18 02:12:00,63.5,51.6,29.85,North,0,0.7,2.9,65,0.00,,,0.00,WUHU216HW,2013-06-18 08:12:00,
2013-06-18 02:14:00,63.5,51.6,29.85,NNE,23,1.3,2.9,65,0.00,,,0.00,WUHU216HW,2013-06-18 08:14:00,
2013-06-18 02:15:00,63.5,51.6,29.85,NNW,338,1.8,2.7,65,0.00,,,0.00,WUHU216HW,2013-06-18 08:15:00,
2013-06-18 02:16:00,63.5,51.6,29.85,North,0,0.7,2.7,65,0.00,,,0.00,WUHU216HW,2013-06-18 08:16:00,
2013-06-18 02:17:00,63.4,51.4,29.85,NW,315,0.9,2.7,65,0.00,,,0.00,WUHU216HW,2013-06-18 08:17:00,
2013-06-18 02:19:00,63.5,51.6,29.85,NW,315,2.5,2.5,65,0.00,,,0.00,WUHU216HW,2013-06-18 08:19:00,
2013-06-18 02:20:00,63.4,51.4,29.85,NE,45,1.6,2.5,65,0.00,,,0.00,WUHU216HW,2013-06-18 08:20:00,
2013-06-18 02:21:00,63.4,51.4,29.85,NE,45,1.8,2.5,65,0.00,,,0.00,WUHU216HW,2013-06-18 08:21:00,
2013-06-18 02:22:00,63.5,51.6,29.85,ENE,68,0.7,2.5,65,0.00,,,0.00,WUHU216HW,2013-06-18 08:22:00,
2013-06-18 02:24:00,63.5,51.6,29.85,ENE,68,0.7,2.5,65,0.00,,,0.00,WUHU216HW,2013-06-18 08:24:00,
2013-06-18 02:26:00,63.5,51.6,29.85,ENE,68,0.0,2.5,65,0.00,,,0.00,WUHU216HW,2013-06-18 08:26:00,
2013-06-18 02:27:00,63.5,51.6,29.85,ENE,68,0.0,2.5,65,0.00,,,0.00,WUHU216HW,2013-06-18 08:27:00,
2013-06-18 02:29:00,63.5,51.6,29.85,ENE,68,0.0,1.8,65,0.00,,,0.00,WUHU216HW,2013-06-18 08:29:00,
2013-06-18 02:31:00,63.5,51.6,29.85,NE,45,0.0,0.7,65,0.00,,,0.00,WUHU216HW,2013-06-18 08:31:00,
2013-06-18 02:32:00,63.5,51.6,29.85,NE,45,0.0,0.7,65,0.00,,,0.00,WUHU216HW,2013-06-18 08:32:00,
2013-06-18 02:33:00,63.5,51.6,29.84,East,90,0.4,0.7,65,0.00,,,0.00,WUHU216HW,2013-06-18 08:33:00,
2013-06-18 02:34:00,63.4,51.4,29.85,South,180,0.9,0.9,65,0.00,,,0.00,WUHU216HW,2013-06-18 08:34:00,
2013-06-18 02:36:00,63.4,51.4,29.85,SE,135,0.7,0.9,65,0.00,,,0.00,WUHU216HW,2013-06-18 08:36:00,
2013-06-18 02:37:00,63.2,51.2,29.85,SE,135,0.0,0.9,65,0.00,,,0.00,WUHU216HW,2013-06-18 08:37:00,
2013-06-18 02:38:00,63.2,51.2,29.85,SE,135,0.0,0.9,65,0.00,,,0.00,WUHU216HW,2013-06-18 08:38:00,
2013-06-18 02:39:00,63.2,51.2,29.85,SE,135,0.0,0.9,65,0.00,,,0.00,WUHU216HW,2013-06-18 08:39:00,
2013-06-18 02:41:00,63.0,51.0,29.85,ENE,68,2.5,2.5,65,0.00,,,0.00,WUHU216HW,2013-06-18 08:41:00,
2013-06-18 02:42:00,63.0,51.0,29.85,SE,135,0.9,2.5,65,0.00,,,0.00,WUHU216HW,2013-06-18 08:42:00,
2013-06-18 02:44:00,63.0,51.0,29.85,East,90,0.2,2.5,65,0.00,,,0.00,WUHU216HW,2013-06-18 08:44:00,
2013-06-18 02:46:00,62.8,50.9,29.85,NE,45,1.1,2.5,65,0.00,,,0.00,WUHU216HW,2013-06-18 08:46:00,
2013-06-18 02:47:00,62.8,51.3,29.85,NNE,23,0.7,2.5,66,0.00,,,0.00,WUHU216HW,2013-06-18 08:47:00,
2013-06-18 02:49:00,62.8,51.3,29.85,SE,135,1.1,2.5,66,0.00,,,0.00,WUHU216HW,2013-06-18 08:49:00,
2013-06-18 02:50:00,62.8,51.3,29.85,SE,135,1.1,2.5,66,0.00,,,0.00,WUHU216HW,2013-06-18 08:50:00,
2013-06-18 02:51:00,62.8,51.3,29.85,SE,135,0.2,1.6,66,0.00,,,0.00,WUHU216HW,2013-06-18 08:51:00,
2013-06-18 02:52:00,62.8,51.3,29.85,ENE,68,0.7,1.6,66,0.00,,,0.00,WUHU216HW,2013-06-18 08:52:00,
2013-06-18 02:54:00,62.6,51.1,29.85,NE,45,0.0,1.6,66,0.00,,,0.00,WUHU216HW,2013-06-18 08:54:00,
2013-06-18 02:55:00,62.6,51.1,29.85,NE,45,0.0,1.6,66,0.00,,,0.00,WUHU216HW,2013-06-18 08:55:00,
2013-06-18 02:56:00,62.6,50.7,29.85,ENE,68,0.4,1.1,65,0.00,,,0.00,WUHU216HW,2013-06-18 08:56:00,
2013-06-18 02:57:00,62.6,50.7,29.85,NNE,23,0.7,1.1,65,0.00,,,0.00,WUHU216HW,2013-06-18 08:57:00,
2013-06-18 02:59:00,62.6,50.7,29.85,NNW,338,0.4,0.7,65,0.00,,,0.00,WUHU216HW,2013-06-18 08:59:00,
2013-06-18 03:00:00,62.6,50.7,29.85,NNW,338,0.2,0.7,65,0.00,,,0.00,WUHU216HW,2013-06-18 09:00:00,
2013-06-18 03:01:00,62.5,50.5,29.85,West,270,0.7,0.7,65,0.00,,,0.00,WUHU216HW,2013-06-18 09:01:00,
2013-06-18 03:02:00,62.5,51.0,29.85,NW,315,1.8,1.8,66,0.00,,,0.00,WUHU216HW,2013-06-18 09:02:00,
2013-06-18 03:04:00,62.5,51.0,29.86,North,0,2.9,2.9,66,0.00,,,0.00,WUHU216HW,2013-06-18 09:04:00,
2013-06-18 03:06:00,63.0,51.4,29.85,SE,135,0.9,2.9,66,0.00,,,0.00,WUHU216HW,2013-06-18 09:06:00,
2013-06-18 03:07:00,63.0,51.4,29.85,SE,135,0.9,2.9,66,0.00,,,0.00,WUHU216HW,2013-06-18 09:07:00,
2013-06-18 03:09:00,63.4,51.4,29.85,SE,135,3.4,3.4,65,0.00,,,0.00,WUHU216HW,2013-06-18 09:09:00,
2013-06-18 03:11:00,63.7,51.7,29.85,SE,135,1.3,4.3,65,0.00,,,0.00,WUHU216HW,2013-06-18 09:11:00,
2013-06-18 03:12:00,63.7,51.7,29.85,ESE,113,0.4,4.3,65,0.00,,,0.00,WUHU216HW,2013-06-18 09:12:00,
2013-06-18 03:13:00,63.7,51.7,29.85,ESE,113,0.4,4.3,65,0.00,,,0.00,WUHU216HW,2013-06-18 09:13:00,
2013-06-18 03:15:00,64.1,52.0,29.85,North,0,1.8,4.3,65,0.00,,,0.00,WUHU216HW,2013-06-18 09:15:00,
2013-06-18 03:16:00,64.3,52.2,29.85,North,0,2.5,4.3,65,0.00,,,0.00,WUHU216HW,2013-06-18 09:16:00,
2013-06-18 03:17:00,64.4,51.9,29.85,NNW,338,2.7,4.3,64,0.00,,,0.00,WUHU216HW,2013-06-18 09:17:00,
2013-06-18 03:18:00,64.4,51.9,29.86,North,0,1.1,4.3,64,0.00,,,0.00,WUHU216HW,2013-06-18 09:18:00,
2013-06-18 03:19:00,64.4,51.9,29.86,North,0,1.1,4.3,64,0.00,,,0.00,WUHU216HW,2013-06-18 09:19:00,
2013-06-18 03:20:00,64.6,52.1,29.86,NNE,23,1.1,4.0,64,0.00,,,0.00,WUHU216HW,2013-06-18 09:20:00,
2013-06-18 03:21:00,64.6,52.1,29.86,NNW,338,0.9,4.0,64,0.00,,,0.00,WUHU216HW,2013-06-18 09:21:00,
2013-06-18 03:22:00,64.6,52.1,29.86,North,0,0.4,4.0,64,0.00,,,0.00,WUHU216HW,2013-06-18 09:22:00,
2013-06-18 03:23:00,64.6,51.7,29.86,NNW,338,0.4,2.7,63,0.00,,,0.00,WUHU216HW,2013-06-18 09:23:00,
2013-06-18 03:24:00,64.6,51.7,29.86,North,0,0.2,2.7,63,0.00,,,0.00,WUHU216HW,2013-06-18 09:24:00,
2013-06-18 03:25:00,64.6,51.7,29.87,NNE,23,0.0,2.7,63,0.00,,,0.00,WUHU216HW,2013-06-18 09:25:00,
2013-06-18 03:26:00,64.6,51.7,29.86,ENE,68,0.9,2.7,63,0.00,,,0.00,WUHU216HW,2013-06-18 09:26:00,
2013-06-18 03:27:00,64.4,51.5,29.86,SSE,158,2.5,2.5,63,0.00,,,0.00,WUHU216HW,2013-06-18 09:27:00,
2013-06-18 03:28:00,64.4,51.5,29.86,South,180,0.4,2.5,63,0.00,,,0.00,WUHU216HW,2013-06-18 09:28:00,
2013-06-18 03:29:00,64.4,51.5,29.86,WSW,248,0.9,2.5,63,0.00,,,0.00,WUHU216HW,2013-06-18 09:29:00,
2013-06-18 03:30:00,64.4,51.5,29.86,WSW,248,0.0,2.5,63,0.00,,,0.00,WUHU216HW,2013-06-18 09:30:00,
2013-06-18 03:32:00,64.3,51.4,29.86,WSW,248,0.0,2.5,63,0.00,,,0.00,WUHU216HW,2013-06-18 09:32:00,
2013-06-18 03:33:00,64.1,51.2,29.86,WSW,248,0.0,2.5,63,0.00,,,0.00,WUHU216HW,2013-06-18 09:33:00,
2013-06-18 03:34:00,64.1,51.2,29.86,WSW,248,0.0,2.5,63,0.00,,,0.00,WUHU216HW,2013-06-18 09:34:00,
2013-06-18 03:35:00,64.1,51.2,29.86,WSW,248,0.0,2.5,63,0.00,,,0.00,WUHU216HW,2013-06-18 09:35:00,
2013-06-18 03:37:00,63.9,51.0,29.86,East,90,0.7,0.9,63,0.00,,,0.00,WUHU216HW,2013-06-18 09:37:00,
2013-06-18 03:38:00,63.7,51.3,29.86,ENE,68,1.1,1.1,64,0.00,,,0.00,WUHU216HW,2013-06-18 09:38:00,
2013-06-18 03:39:00,63.7,51.3,29.86,ENE,68,1.1,1.1,64,0.00,,,0.00,WUHU216HW,2013-06-18 09:39:00,
2013-06-18 03:40:00,63.7,51.3,29.86,East,90,0.9,1.1,64,0.00,,,0.00,WUHU216HW,2013-06-18 09:40:00,
2013-06-18 03:42:00,63.5,51.1,29.86,ENE,68,0.7,1.1,64,0.00,,,0.00,WUHU216HW,2013-06-18 09:42:00,
2013-06-18 03:43:00,63.4,51.0,29.85,ENE,68,0.2,1.1,64,0.00,,,0.00,WUHU216HW,2013-06-18 09:43:00,
2013-06-18 03:44:00,63.4,51.0,29.85,ENE,68,0.2,1.1,64,0.00,,,0.00,WUHU216HW,2013-06-18 09:44:00,
2013-06-18 03:45:00,63.4,51.0,29.85,ENE,68,0.0,1.1,64,0.00,,,0.00,WUHU216HW,2013-06-18 09:45:00,
2013-06-18 03:47:00,63.2,51.2,29.85,East,90,0.4,1.1,65,0.00,,,0.00,WUHU216HW,2013-06-18 09:47:00,
2013-06-18 03:48:00,63.0,51.0,29.85,ESE,113,0.4,1.1,65,0.00,,,0.00,WUHU216HW,2013-06-18 09:48:00,
2013-06-18 03:49:00,63.0,51.0,29.85,South,180,0.0,0.9,65,0.00,,,0.00,WUHU216HW,2013-06-18 09:49:00,
2013-06-18 03:50:00,63.0,51.0,29.85,South,180,0.4,0.7,65,0.00,,,0.00,WUHU216HW,2013-06-18 09:50:00,
2013-06-18 03:53:00,63.0,51.0,29.85,South,180,0.0,0.4,65,0.00,,,0.00,WUHU216HW,2013-06-18 09:53:00,
2013-06-18 03:54:00,62.8,50.9,29.85,ENE,68,0.4,0.4,65,0.00,,,0.00,WUHU216HW,2013-06-18 09:54:00,
2013-06-18 03:55:00,62.6,50.7,29.85,ENE,68,0.2,0.4,65,0.00,,,0.00,WUHU216HW,2013-06-18 09:55:00,
2013-06-18 03:58:00,62.5,50.5,29.85,ENE,68,0.7,1.1,65,0.00,,,0.00,WUHU216HW,2013-06-18 09:58:00,
2013-06-18 03:59:00,62.3,50.3,29.85,NNE,23,0.4,1.1,65,0.00,,,0.00,WUHU216HW,2013-06-18 09:59:00,
2013-06-18 04:00:00,62.3,50.3,29.86,North,0,0.0,1.1,65,0.00,,,0.00,WUHU216HW,2013-06-18 10:00:00,
2013-06-18 04:03:00,61.9,50.4,29.86,NNW,338,0.9,1.1,66,0.00,,,0.00,WUHU216HW,2013-06-18 10:03:00,
2013-06-18 04:04:00,61.9,50.4,29.86,North,0,1.3,1.3,66,0.00,,,0.00,WUHU216HW,2013-06-18 10:04:00,
2013-06-18 04:05:00,61.7,50.7,29.86,NNE,23,2.2,2.2,67,0.00,,,0.00,WUHU216HW,2013-06-18 10:05:00,
2013-06-18 04:06:00,61.7,50.7,29.86,NNE,23,0.2,2.2,67,0.00,,,0.00,WUHU216HW,2013-06-18 10:06:00,
2013-06-18 04:08:00,61.6,50.5,29.86,ENE,68,0.4,2.2,67,0.00,,,0.00,WUHU216HW,2013-06-18 10:08:00,
2013-06-18 04:09:00,61.6,50.5,29.86,ENE,68,0.0,2.2,67,0.00,,,0.00,WUHU216HW,2013-06-18 10:09:00,
2013-06-18 04:11:00,61.4,50.4,29.86,ENE,68,0.0,2.2,67,0.00,,,0.00,WUHU216HW,2013-06-18 10:11:00,
2013-06-18 04:13:00,61.4,50.4,29.86,North,0,1.1,2.2,67,0.00,,,0.00,WUHU216HW,2013-06-18 10:13:00,
2013-06-18 04:14:00,61.2,50.6,29.86,North,0,0.4,2.2,68,0.00,,,0.00,WUHU216HW,2013-06-18 10:14:00,
2013-06-18 04:15:00,61.2,50.6,29.86,North,0,0.0,1.1,68,0.00,,,0.00,WUHU216HW,2013-06-18 10:15:00,
2013-06-18 04:16:00,61.2,50.6,29.85,NNE,23,0.0,1.1,68,0.00,,,0.00,WUHU216HW,2013-06-18 10:16:00,
2013-06-18 04:18:00,61.0,50.0,29.86,NNE,23,0.0,1.1,67,0.00,,,0.00,WUHU216HW,2013-06-18 10:18:00,
2013-06-18 04:19:00,61.0,50.0,29.86,NNE,23,0.0,1.1,67,0.00,,,0.00,WUHU216HW,2013-06-18 10:19:00,
2013-06-18 04:20:00,61.0,50.0,29.86,NNE,23,0.0,1.1,67,0.00,,,0.00,WUHU216HW,2013-06-18 10:20:00,
2013-06-18 04:21:00,61.0,50.0,29.86,NNE,23,0.0,1.1,67,0.00,,,0.00,WUHU216HW,2013-06-18 10:21:00,
2013-06-18 04:24:00,60.8,49.9,29.86,NNE,23,0.0,0.0,67,0.00,,,0.00,WUHU216HW,2013-06-18 10:24:00,
2013-06-18 04:25:00,60.8,49.9,29.86,NNE,23,0.0,0.0,67,0.00,,,0.00,WUHU216HW,2013-06-18 10:25:00,
2013-06-18 04:26:00,60.8,49.9,29.86,NNE,23,0.0,0.0,67,0.00,,,0.00,WUHU216HW,2013-06-18 10:26:00,
2013-06-18 04:27:00,60.8,49.9,29.86,NNE,23,0.0,0.0,67,0.00,,,0.00,WUHU216HW,2013-06-18 10:27:00,
2013-06-18 04:29:00,60.7,49.7,29.85,NNE,23,0.2,0.2,67,0.00,,,0.00,WUHU216HW,2013-06-18 10:29:00,
2013-06-18 04:30:00,60.7,49.7,29.85,NNE,23,0.2,0.2,67,0.00,,,0.00,WUHU216HW,2013-06-18 10:30:00,
2013-06-18 04:31:00,60.5,50.0,29.86,NNW,338,0.4,0.4,68,0.00,,,0.00,WUHU216HW,2013-06-18 10:31:00,
2013-06-18 04:32:00,60.5,50.0,29.85,NNW,338,0.4,0.4,68,0.00,,,0.00,WUHU216HW,2013-06-18 10:32:00,
2013-06-18 04:34:00,60.5,50.0,29.85,NNW,338,0.2,0.4,68,0.00,,,0.00,WUHU216HW,2013-06-18 10:34:00,
2013-06-18 04:35:00,60.5,50.0,29.86,NNE,23,0.4,0.4,68,0.00,,,0.00,WUHU216HW,2013-06-18 10:35:00,
2013-06-18 04:36:00,60.3,49.8,29.86,NNE,23,0.0,0.4,68,0.00,,,0.00,WUHU216HW,2013-06-18 10:36:00,
2013-06-18 04:37:00,60.3,49.8,29.86,NNE,23,0.4,0.4,68,0.00,,,0.00,WUHU216HW,2013-06-18 10:37:00,
2013-06-18 04:39:00,60.3,49.8,29.86,NNE,23,0.0,0.4,68,0.00,,,0.00,WUHU216HW,2013-06-18 10:39:00,
2013-06-18 04:40:00,60.1,49.6,29.86,NNE,23,0.0,0.4,68,0.00,,,0.00,WUHU216HW,2013-06-18 10:40:00,
2013-06-18 04:41:00,60.1,49.6,29.85,NNE,23,0.0,0.4,68,0.00,,,0.00,WUHU216HW,2013-06-18 10:41:00,
2013-06-18 04:42:00,60.1,49.6,29.85,NNE,23,0.0,0.4,68,0.00,,,0.00,WUHU216HW,2013-06-18 10:42:00,
2013-06-18 04:45:00,60.1,50.0,29.85,NNE,23,0.9,1.3,69,0.00,,,0.00,WUHU216HW,2013-06-18 10:45:00,
2013-06-18 04:47:00,59.9,49.8,29.85,NE,45,0.4,1.3,69,0.00,,,0.00,WUHU216HW,2013-06-18 10:47:00,
2013-06-18 04:50:00,59.8,49.6,29.86,NE,45,0.0,1.3,69,0.00,,,0.00,WUHU216HW,2013-06-18 10:50:00,
2013-06-18 04:52:00,59.6,49.4,29.86,NE,45,0.0,1.3,69,0.00,,,0.00,WUHU216HW,2013-06-18 10:52:00,
2013-06-18 04:55:00,59.4,49.2,29.86,NE,45,0.0,0.4,69,0.00,,,0.00,WUHU216HW,2013-06-18 10:55:00,
2013-06-18 04:56:00,59.4,49.7,29.86,NE,45,0.0,0.0,70,0.00,,,0.00,WUHU216HW,2013-06-18 10:56:00,
2013-06-18 04:57:00,59.4,49.2,29.86,NE,45,0.0,0.0,69,0.00,,,0.00,WUHU216HW,2013-06-18 10:57:00,
2013-06-18 05:00:00,59.4,49.7,29.86,North,0,0.4,0.4,70,0.00,,,0.00,WUHU216HW,2013-06-18 11:00:00,
2013-06-18 05:01:00,59.4,49.7,29.86,North,0,0.0,0.4,70,0.00,,,0.00,WUHU216HW,2013-06-18 11:01:00,
2013-06-18 05:02:00,59.4,49.7,29.86,North,0,0.2,0.4,70,0.00,,,0.00,WUHU216HW,2013-06-18 11:02:00,
2013-06-18 05:03:00,59.4,49.7,29.86,North,0,0.0,0.4,70,0.00,,,0.00,WUHU216HW,2013-06-18 11:03:00,
2013-06-18 05:06:00,59.2,49.5,29.86,North,0,0.2,0.4,70,0.00,,,0.00,WUHU216HW,2013-06-18 11:06:00,
2013-06-18 05:07:00,59.2,49.5,29.86,NNE,23,0.2,0.4,70,0.00,,,0.00,WUHU216HW,2013-06-18 11:07:00,
2013-06-18 05:08:00,59.0,49.3,29.86,ENE,68,0.4,0.4,70,0.00,,,0.00,WUHU216HW,2013-06-18 11:08:00,
2013-06-18 05:11:00,59.0,49.3,29.86,ENE,68,0.7,0.9,70,0.00,,,0.00,WUHU216HW,2013-06-18 11:11:00,
2013-06-18 05:12:00,58.9,49.1,29.86,NE,45,0.4,0.9,70,0.00,,,0.00,WUHU216HW,2013-06-18 11:12:00,
2013-06-18 05:13:00,58.9,49.1,29.86,NE,45,0.4,0.9,70,0.00,,,0.00,WUHU216HW,2013-06-18 11:13:00,
2013-06-18 05:14:00,58.7,49.3,29.86,ENE,68,0.4,0.9,71,0.00,,,0.00,WUHU216HW,2013-06-18 11:14:00,
2013-06-18 05:16:00,58.7,49.3,29.86,ENE,68,0.0,0.9,71,0.00,,,0.00,WUHU216HW,2013-06-18 11:16:00,
2013-06-18 05:17:00,58.7,49.3,29.86,ENE,68,0.0,0.9,71,0.00,,,0.00,WUHU216HW,2013-06-18 11:17:00,
2013-06-18 05:18:00,58.5,49.1,29.86,ENE,68,0.0,0.9,71,0.00,,,0.00,WUHU216HW,2013-06-18 11:18:00,
2013-06-18 05:19:00,58.5,49.1,29.86,ENE,68,0.0,0.7,71,0.00,,,0.00,WUHU216HW,2013-06-18 11:19:00,
2013-06-18 05:21:00,58.5,49.1,29.86,ENE,68,0.0,0.4,71,0.00,,,0.00,WUHU216HW,2013-06-18 11:21:00,
2013-06-18 05:22:00,58.5,49.1,29.86,ENE,68,0.0,0.4,71,0.00,,,0.00,WUHU216HW,2013-06-18 11:22:00,
2013-06-18 05:23:00,58.3,49.0,29.86,ENE,68,0.0,0.4,71,0.00,,,0.00,WUHU216HW,2013-06-18 11:23:00,
2013-06-18 05:24:00,58.5,49.1,29.86,ENE,68,0.0,0.0,71,0.00,,,0.00,WUHU216HW,2013-06-18 11:24:00,
2013-06-18 05:26:00,58.3,49.0,29.86,ENE,68,0.0,0.0,71,0.00,,,0.00,WUHU216HW,2013-06-18 11:26:00,
2013-06-18 05:27:00,58.3,49.3,29.86,NE,45,0.7,0.7,72,0.00,,,0.00,WUHU216HW,2013-06-18 11:27:00,
2013-06-18 05:28:00,58.3,49.3,29.86,ENE,68,0.0,0.7,72,0.00,,,0.00,WUHU216HW,2013-06-18 11:28:00,
2013-06-18 05:30:00,58.3,49.3,29.86,ENE,68,0.0,0.7,72,0.00,,,0.00,WUHU216HW,2013-06-18 11:30:00,
2013-06-18 05:32:00,58.1,49.1,29.86,ENE,68,0.0,0.7,72,0.00,,,0.00,WUHU216HW,2013-06-18 11:32:00,
2013-06-18 05:33:00,58.3,49.3,29.86,ENE,68,0.0,0.7,72,0.00,,,0.00,WUHU216HW,2013-06-18 11:33:00,
2013-06-18 05:35:00,58.1,49.1,29.86,ENE,68,0.0,0.7,72,0.00,,,0.00,WUHU216HW,2013-06-18 11:35:00,
2013-06-18 05:37:00,58.1,49.1,29.86,ENE,68,0.0,0.0,72,0.00,,,0.00,WUHU216HW,2013-06-18 11:37:00,
2013-06-18 05:38:00,58.1,49.1,29.87,ENE,68,0.0,0.0,72,0.00,,,0.00,WUHU216HW,2013-06-18 11:38:00,
2013-06-18 05:39:00,58.1,49.1,29.87,ENE,68,0.0,0.0,72,0.00,,,0.00,WUHU216HW,2013-06-18 11:39:00,
2013-06-18 05:40:00,58.1,49.1,29.87,ENE,68,0.0,0.0,72,0.00,,,0.00,WUHU216HW,2013-06-18 11:40:00,
2013-06-18 05:42:00,58.1,49.1,29.87,NE,45,0.0,0.0,72,0.00,,,0.00,WUHU216HW,2013-06-18 11:42:00,
2013-06-18 05:43:00,58.1,49.1,29.87,NE,45,0.0,0.0,72,0.00,,,0.00,WUHU216HW,2013-06-18 11:43:00,
2013-06-18 05:44:00,58.1,49.1,29.87,NE,45,0.0,0.0,72,0.00,,,0.00,WUHU216HW,2013-06-18 11:44:00,
2013-06-18 05:45:00,58.1,49.5,29.87,ENE,68,0.0,0.0,73,0.00,,,0.00,WUHU216HW,2013-06-18 11:45:00,
2013-06-18 05:47:00,58.1,49.5,29.87,ENE,68,0.0,0.0,73,0.00,,,0.00,WUHU216HW,2013-06-18 11:47:00,
2013-06-18 05:48:00,58.1,49.5,29.87,ENE,68,0.0,0.0,73,0.00,,,0.00,WUHU216HW,2013-06-18 11:48:00,
2013-06-18 05:49:00,58.1,49.5,29.87,ENE,68,0.0,0.0,73,0.00,,,0.00,WUHU216HW,2013-06-18 11:49:00,
2013-06-18 05:50:00,58.1,49.5,29.87,ENE,68,0.0,0.0,73,0.00,,,0.00,WUHU216HW,2013-06-18 11:50:00,
2013-06-18 05:52:00,58.1,49.5,29.87,ENE,68,0.0,0.0,73,0.00,,,0.00,WUHU216HW,2013-06-18 11:52:00,
2013-06-18 05:54:00,58.0,49.3,29.87,ENE,68,0.0,0.0,73,0.00,,,0.00,WUHU216HW,2013-06-18 11:54:00,
2013-06-18 05:56:00,58.0,49.3,29.87,ENE,68,0.0,0.0,73,0.00,,,0.00,WUHU216HW,2013-06-18 11:56:00,
2013-06-18 05:57:00,58.1,49.5,29.87,ENE,68,0.0,0.0,73,0.00,,,0.00,WUHU216HW,2013-06-18 11:57:00,
2013-06-18 05:58:00,58.0,49.3,29.87,SSE,158,0.4,0.4,73,0.00,,,0.00,WUHU216HW,2013-06-18 11:58:00,
2013-06-18 05:59:00,58.0,49.3,29.87,SSE,158,0.4,0.4,73,0.00,,,0.00,WUHU216HW,2013-06-18 11:59:00,
2013-06-18 06:01:00,58.0,49.3,29.86,SSE,158,0.9,1.1,73,0.00,,,0.00,WUHU216HW,2013-06-18 12:01:00,
2013-06-18 06:02:00,58.0,49.3,29.86,SSE,158,0.9,1.1,73,0.00,,,0.00,WUHU216HW,2013-06-18 12:02:00,
2013-06-18 06:03:00,58.0,49.3,29.86,SW,225,0.4,1.1,73,0.00,,,0.00,WUHU216HW,2013-06-18 12:03:00,
2013-06-18 06:04:00,58.0,49.3,29.87,South,180,0.7,1.1,73,0.00,,,0.00,WUHU216HW,2013-06-18 12:04:00,
2013-06-18 06:06:00,58.0,49.3,29.86,SE,135,1.3,1.3,73,0.00,,,0.00,WUHU216HW,2013-06-18 12:06:00,
2013-06-18 06:07:00,58.0,49.7,29.86,SE,135,1.3,1.3,74,0.00,,,0.00,WUHU216HW,2013-06-18 12:07:00,
2013-06-18 06:08:00,58.1,49.9,29.86,SSE,158,1.3,1.3,74,0.00,,,0.00,WUHU216HW,2013-06-18 12:08:00,
2013-06-18 06:09:00,58.1,49.9,29.86,SSE,158,1.1,1.3,74,0.00,,,0.00,WUHU216HW,2013-06-18 12:09:00,
2013-06-18 06:11:00,58.1,49.9,29.86,SSE,158,0.0,1.3,74,0.00,,,0.00,WUHU216HW,2013-06-18 12:11:00,
2013-06-18 06:12:00,58.1,49.9,29.86,ENE,68,0.4,1.3,74,0.00,,,0.00,WUHU216HW,2013-06-18 12:12:00,
2013-06-18 06:13:00,58.1,49.9,29.86,ENE,68,0.2,1.3,74,0.00,,,0.00,WUHU216HW,2013-06-18 12:13:00,
2013-06-18 06:14:00,58.1,50.2,29.86,NNE,23,0.2,1.3,75,0.00,,,0.00,WUHU216HW,2013-06-18 12:14:00,
2013-06-18 06:16:00,58.1,49.9,29.86,WNW,293,1.1,1.3,74,0.00,,,0.00,WUHU216HW,2013-06-18 12:16:00,
2013-06-18 06:17:00,58.1,49.9,29.86,NW,315,1.8,1.8,74,0.00,,,0.00,WUHU216HW,2013-06-18 12:17:00,
2013-06-18 06:18:00,58.1,49.9,29.87,NNW,338,0.4,1.8,74,0.00,,,0.00,WUHU216HW,2013-06-18 12:18:00,
2013-06-18 06:19:00,58.1,49.9,29.87,North,0,0.2,1.8,74,0.00,,,0.00,WUHU216HW,2013-06-18 12:19:00,
2013-06-18 06:21:00,58.3,50.0,29.86,East,90,0.4,1.8,74,0.00,,,0.00,WUHU216HW,2013-06-18 12:21:00,
2013-06-18 06:22:00,58.1,49.9,29.86,East,90,0.4,1.8,74,0.00,,,0.00,WUHU216HW,2013-06-18 12:22:00,
2013-06-18 06:23:00,58.1,49.9,29.86,SSW,203,0.7,1.8,74,0.00,,,0.00,WUHU216HW,2013-06-18 12:23:00,
2013-06-18 06:24:00,58.3,50.0,29.86,SW,225,0.9,1.8,74,0.00,,,0.00,WUHU216HW,2013-06-18 12:24:00,
2013-06-18 06:27:00,58.3,50.0,29.86,SW,225,0.4,0.9,74,0.00,,,0.00,WUHU216HW,2013-06-18 12:27:00,
2013-06-18 06:28:00,58.3,50.0,29.86,SW,225,0.0,0.9,74,0.00,,,0.00,WUHU216HW,2013-06-18 12:28:00,
2013-06-18 06:29:00,58.3,50.0,29.86,East,90,1.1,1.1,74,0.00,,,0.00,WUHU216HW,2013-06-18 12:29:00,
2013-06-18 06:32:00,58.3,50.8,29.86,North,0,0.4,1.3,76,0.00,,,0.00,WUHU216HW,2013-06-18 12:32:00,
2013-06-18 06:33:00,58.3,50.4,29.86,NNW,338,1.8,1.8,75,0.00,,,0.00,WUHU216HW,2013-06-18 12:33:00,
2013-06-18 06:34:00,58.3,50.4,29.86,WNW,293,0.7,1.8,75,0.00,,,0.00,WUHU216HW,2013-06-18 12:34:00,
2013-06-18 06:35:00,58.3,50.4,29.86,WNW,293,0.7,1.8,75,0.00,,,0.00,WUHU216HW,2013-06-18 12:35:00,
2013-06-18 06:38:00,58.3,50.4,29.86,North,0,0.4,1.8,75,0.00,,,0.00,WUHU216HW,2013-06-18 12:38:00,
2013-06-18 06:39:00,58.3,50.4,29.86,ENE,68,1.3,1.8,75,0.00,,,0.00,WUHU216HW,2013-06-18 12:39:00,
2013-06-18 06:40:00,58.3,50.4,29.86,ENE,68,1.3,1.8,75,0.00,,,0.00,WUHU216HW,2013-06-18 12:40:00,
2013-06-18 06:43:00,58.3,50.8,29.85,NNE,23,1.1,2.2,76,0.00,,,0.00,WUHU216HW,2013-06-18 12:43:00,
2013-06-18 06:44:00,58.3,50.8,29.85,NNE,23,1.1,2.2,76,0.00,,,0.00,WUHU216HW,2013-06-18 12:44:00,
2013-06-18 06:45:00,58.3,50.4,29.85,NNW,338,0.7,2.2,75,0.00,,,0.00,WUHU216HW,2013-06-18 12:45:00,
2013-06-18 06:48:00,58.1,50.2,29.86,NNW,338,0.4,2.2,75,0.00,,,0.00,WUHU216HW,2013-06-18 12:48:00,
2013-06-18 06:49:00,58.1,50.2,29.86,NNW,338,0.4,2.2,75,0.00,,,0.00,WUHU216HW,2013-06-18 12:49:00,
2013-06-18 06:50:00,58.1,50.2,29.86,North,0,0.4,2.2,75,0.00,,,0.00,WUHU216HW,2013-06-18 12:50:00,
2013-06-18 06:53:00,58.1,50.2,29.86,ENE,68,0.0,0.7,75,0.00,,,0.00,WUHU216HW,2013-06-18 12:53:00,
2013-06-18 06:54:00,58.1,50.2,29.86,ENE,68,0.0,0.7,75,0.00,,,0.00,WUHU216HW,2013-06-18 12:54:00,
2013-06-18 06:55:00,58.1,50.2,29.85,NE,45,2.2,2.2,75,0.00,,,0.00,WUHU216HW,2013-06-18 12:55:00,
2013-06-18 06:59:00,58.1,50.2,29.85,NNW,338,0.9,2.2,75,0.00,,,0.00,WUHU216HW,2013-06-18 12:59:00,
2013-06-18 07:00:00,58.3,50.4,29.86,NNW,338,0.7,2.2,75,0.00,,,0.00,WUHU216HW,2013-06-18 13:00:00,
2013-06-18 07:01:00,58.3,50.4,29.86,NNW,338,0.7,2.2,75,0.00,,,0.00,WUHU216HW,2013-06-18 13:01:00,
2013-06-18 07:04:00,58.5,50.6,29.87,NNW,338,1.1,2.2,75,0.00,,,0.00,WUHU216HW,2013-06-18 13:04:00,
2013-06-18 07:05:00,58.5,50.6,29.87,NNW,338,0.4,1.3,75,0.00,,,0.00,WUHU216HW,2013-06-18 13:05:00,
2013-06-18 07:06:00,58.7,50.8,29.86,NNW,338,0.7,1.3,75,0.00,,,0.00,WUHU216HW,2013-06-18 13:06:00,
2013-06-18 07:09:00,58.7,50.8,29.86,SE,135,0.7,1.3,75,0.00,,,0.00,WUHU216HW,2013-06-18 13:09:00,
2013-06-18 07:11:00,58.7,50.8,29.86,SE,135,0.0,1.3,75,0.00,,,0.00,WUHU216HW,2013-06-18 13:11:00,
2013-06-18 07:14:00,59.0,51.1,29.86,NNW,338,0.4,1.1,75,0.00,,,0.00,WUHU216HW,2013-06-18 13:14:00,
2013-06-18 07:16:00,59.0,51.1,29.86,NNW,338,0.4,1.1,75,0.00,,,0.00,WUHU216HW,2013-06-18 13:16:00,
2013-06-18 07:19:00,59.4,51.5,29.87,NNE,23,0.7,1.1,75,0.00,,,0.00,WUHU216HW,2013-06-18 13:19:00,
2013-06-18 07:20:00,59.4,51.5,29.87,NNE,23,0.7,1.1,75,0.00,,,0.00,WUHU216HW,2013-06-18 13:20:00,
2013-06-18 07:21:00,59.4,51.5,29.87,ENE,68,0.9,1.1,75,0.00,,,0.00,WUHU216HW,2013-06-18 13:21:00,
2013-06-18 07:24:00,59.8,51.8,29.86,ENE,68,0.4,1.1,75,0.00,,,0.00,WUHU216HW,2013-06-18 13:24:00,
2013-06-18 07:25:00,59.9,52.0,29.86,NE,45,0.4,1.1,75,0.00,,,0.00,WUHU216HW,2013-06-18 13:25:00,
2013-06-18 07:26:00,59.9,52.0,29.86,North,0,1.1,1.1,75,0.00,,,0.00,WUHU216HW,2013-06-18 13:26:00,
2013-06-18 07:29:00,60.1,51.8,29.86,NNE,23,1.3,1.3,74,0.00,,,0.00,WUHU216HW,2013-06-18 13:29:00,
2013-06-18 07:30:00,60.1,51.8,29.86,North,0,0.4,1.3,74,0.00,,,0.00,WUHU216HW,2013-06-18 13:30:00,
2013-06-18 07:31:00,60.3,52.0,29.86,SE,135,0.4,1.3,74,0.00,,,0.00,WUHU216HW,2013-06-18 13:31:00,
2013-06-18 07:35:00,60.3,51.7,29.86,SSW,203,0.2,1.3,73,0.00,,,0.00,WUHU216HW,2013-06-18 13:35:00,
2013-06-18 07:36:00,60.5,51.8,29.86,NE,45,1.6,1.6,73,0.00,,,0.00,WUHU216HW,2013-06-18 13:36:00,
2013-06-18 07:40:00,60.7,52.0,29.85,ENE,68,0.0,1.6,73,0.00,,,0.00,WUHU216HW,2013-06-18 13:40:00,
2013-06-18 07:41:00,60.8,52.2,29.85,WSW,248,0.4,1.6,73,0.00,,,0.00,WUHU216HW,2013-06-18 13:41:00,
2013-06-18 07:42:00,60.8,52.2,29.85,WSW,248,0.4,1.6,73,0.00,,,0.00,WUHU216HW,2013-06-18 13:42:00,
2013-06-18 07:45:00,60.8,52.2,29.86,WSW,248,0.0,1.6,73,0.00,,,0.00,WUHU216HW,2013-06-18 13:45:00,
2013-06-18 07:46:00,60.8,52.2,29.86,West,270,0.0,1.6,73,0.00,,,0.00,WUHU216HW,2013-06-18 13:46:00,
2013-06-18 07:47:00,60.8,52.2,29.86,West,270,0.0,0.7,73,0.00,,,0.00,WUHU216HW,2013-06-18 13:47:00,
2013-06-18 07:50:00,61.0,52.4,29.86,NE,45,0.0,0.7,73,0.00,,,0.00,WUHU216HW,2013-06-18 13:50:00,
2013-06-18 07:51:00,61.2,52.2,29.86,NE,45,0.0,0.7,72,0.00,,,0.00,WUHU216HW,2013-06-18 13:51:00,
2013-06-18 07:52:00,61.2,52.2,29.86,NE,45,0.0,0.7,72,0.00,,,0.00,WUHU216HW,2013-06-18 13:52:00,
2013-06-18 07:55:00,61.4,52.3,29.86,ENE,68,0.9,1.1,72,0.00,,,0.00,WUHU216HW,2013-06-18 13:55:00,
2013-06-18 07:56:00,61.4,52.3,29.86,ENE,68,0.4,1.1,72,0.00,,,0.00,WUHU216HW,2013-06-18 13:56:00,
2013-06-18 07:57:00,61.4,52.3,29.86,ENE,68,0.7,1.1,72,0.00,,,0.00,WUHU216HW,2013-06-18 13:57:00,
2013-06-18 07:58:00,61.4,52.3,29.86,ENE,68,0.7,1.1,72,0.00,,,0.00,WUHU216HW,2013-06-18 13:58:00,
2013-06-18 08:00:00,61.6,52.5,29.86,NE,45,0.0,1.1,72,0.00,,,0.00,WUHU216HW,2013-06-18 14:00:00,
2013-06-18 08:01:00,61.6,52.1,29.86,NE,45,0.0,1.1,71,0.00,,,0.00,WUHU216HW,2013-06-18 14:01:00,
2013-06-18 08:02:00,61.6,52.5,29.86,South,180,0.2,0.9,72,0.00,,,0.00,WUHU216HW,2013-06-18 14:02:00,
2013-06-18 08:03:00,61.6,52.5,29.86,South,180,0.2,0.9,72,0.00,,,0.00,WUHU216HW,2013-06-18 14:03:00,
2013-06-18 08:05:00,61.6,52.5,29.86,South,180,0.0,0.7,72,0.00,,,0.00,WUHU216HW,2013-06-18 14:05:00,
2013-06-18 08:06:00,61.6,52.5,29.86,SSW,203,0.0,0.7,72,0.00,,,0.00,WUHU216HW,2013-06-18 14:06:00,
2013-06-18 08:07:00,61.7,52.7,29.85,West,270,0.0,0.4,72,0.00,,,0.00,WUHU216HW,2013-06-18 14:07:00,
2013-06-18 08:08:00,61.7,52.3,29.86,South,180,0.0,0.4,71,0.00,,,0.00,WUHU216HW,2013-06-18 14:08:00,
2013-06-18 08:11:00,61.9,52.5,29.85,SSE,158,0.4,0.4,71,0.00,,,0.00,WUHU216HW,2013-06-18 14:11:00,
2013-06-18 08:13:00,61.9,52.8,29.85,SSW,203,0.4,0.4,72,0.00,,,0.00,WUHU216HW,2013-06-18 14:13:00,
2013-06-18 08:16:00,62.3,53.1,29.85,SW,225,0.7,1.1,72,0.00,,,0.00,WUHU216HW,2013-06-18 14:16:00,
2013-06-18 08:18:00,62.5,53.3,29.85,NNW,338,0.2,1.1,72,0.00,,,0.00,WUHU216HW,2013-06-18 14:18:00,
2013-06-18 08:19:00,62.5,53.3,29.85,NNW,338,0.2,1.1,72,0.00,,,0.00,WUHU216HW,2013-06-18 14:19:00,
2013-06-18 08:21:00,62.6,53.5,29.85,West,270,0.4,1.1,72,0.00,,,0.00,WUHU216HW,2013-06-18 14:21:00,
2013-06-18 08:22:00,62.8,53.6,29.85,West,270,0.2,1.1,72,0.00,,,0.00,WUHU216HW,2013-06-18 14:22:00,
2013-06-18 08:23:00,63.0,53.8,29.85,SW,225,1.6,1.6,72,0.00,,,0.00,WUHU216HW,2013-06-18 14:23:00,
2013-06-18 08:24:00,63.0,53.8,29.86,SW,225,0.0,1.6,72,0.00,,,0.00,WUHU216HW,2013-06-18 14:24:00,
2013-06-18 08:26:00,63.2,54.0,29.85,SSE,158,0.0,1.6,72,0.00,,,0.00,WUHU216HW,2013-06-18 14:26:00,
2013-06-18 08:27:00,63.4,54.2,29.85,ENE,68,0.4,1.6,72,0.00,,,0.00,WUHU216HW,2013-06-18 14:27:00,
2013-06-18 08:28:00,63.5,54.4,29.85,East,90,0.7,1.6,72,0.00,,,0.00,WUHU216HW,2013-06-18 14:28:00,
2013-06-18 08:29:00,63.5,54.4,29.85,SE,135,1.1,1.6,72,0.00,,,0.00,WUHU216HW,2013-06-18 14:29:00,
2013-06-18 08:32:00,63.7,54.2,29.85,SSE,158,0.4,1.6,71,0.00,,,0.00,WUHU216HW,2013-06-18 14:32:00,
2013-06-18 08:33:00,63.7,54.2,29.85,SSE,158,0.7,1.1,71,0.00,,,0.00,WUHU216HW,2013-06-18 14:33:00,
2013-06-18 08:34:00,63.9,54.4,29.85,NE,45,1.3,1.3,71,0.00,,,0.00,WUHU216HW,2013-06-18 14:34:00,
2013-06-18 08:37:00,64.1,54.2,29.85,NE,45,0.0,1.3,70,0.00,,,0.00,WUHU216HW,2013-06-18 14:37:00,
2013-06-18 08:39:00,64.1,54.2,29.85,NE,45,0.0,1.3,70,0.00,,,0.00,WUHU216HW,2013-06-18 14:39:00,
2013-06-18 08:42:00,64.1,54.2,29.85,West,270,0.4,1.3,70,0.00,,,0.00,WUHU216HW,2013-06-18 14:42:00,
2013-06-18 08:44:00,64.3,54.4,29.85,WSW,248,0.4,0.9,70,0.00,,,0.00,WUHU216HW,2013-06-18 14:44:00,
2013-06-18 08:47:00,64.4,54.5,29.85,WNW,293,0.4,0.9,70,0.00,,,0.00,WUHU216HW,2013-06-18 14:47:00,
2013-06-18 08:49:00,64.4,54.5,29.85,WNW,293,1.3,1.3,70,0.00,,,0.00,WUHU216HW,2013-06-18 14:49:00,
2013-06-18 08:52:00,64.6,54.7,29.85,NW,315,0.4,1.3,70,0.00,,,0.00,WUHU216HW,2013-06-18 14:52:00,
2013-06-18 08:54:00,64.6,54.3,29.85,NW,315,0.4,1.3,69,0.00,,,0.00,WUHU216HW,2013-06-18 14:54:00,
2013-06-18 08:57:00,64.8,54.5,29.85,NNW,338,0.2,1.3,69,0.00,,,0.00,WUHU216HW,2013-06-18 14:57:00,
2013-06-18 08:59:00,65.0,54.6,29.85,NNW,338,0.0,1.1,69,0.00,,,0.00,WUHU216HW,2013-06-18 14:59:00,
2013-06-18 09:02:00,65.2,55.2,29.85,NNW,338,1.1,1.1,70,0.00,,,0.00,WUHU216HW,2013-06-18 15:02:00,
2013-06-18 09:04:00,65.3,54.9,29.85,North,0,1.3,1.3,69,0.00,,,0.00,WUHU216HW,2013-06-18 15:04:00,
2013-06-18 09:05:00,65.5,55.1,29.85,NNW,338,0.7,1.3,69,0.00,,,0.00,WUHU216HW,2013-06-18 15:05:00,
2013-06-18 09:07:00,65.7,54.8,29.85,ESE,113,0.9,1.3,68,0.00,,,0.00,WUHU216HW,2013-06-18 15:07:00,
2013-06-18 09:09:00,65.9,55.0,29.85,NW,315,1.3,1.3,68,0.00,,,0.00,WUHU216HW,2013-06-18 15:09:00,
2013-06-18 09:10:00,65.9,55.0,29.85,NNW,338,1.6,1.6,68,0.00,,,0.00,WUHU216HW,2013-06-18 15:10:00,
2013-06-18 09:12:00,66.2,55.4,29.85,West,270,0.7,1.6,68,0.00,,,0.00,WUHU216HW,2013-06-18 15:12:00,
2013-06-18 09:13:00,66.2,55.4,29.85,North,0,0.4,1.6,68,0.00,,,0.00,WUHU216HW,2013-06-18 15:13:00,
2013-06-18 09:14:00,66.2,55.4,29.85,NE,45,0.4,1.6,68,0.00,,,0.00,WUHU216HW,2013-06-18 15:14:00,
2013-06-18 09:15:00,66.4,55.5,29.85,NNW,338,0.7,1.6,68,0.00,,,0.00,WUHU216HW,2013-06-18 15:15:00,
2013-06-18 09:17:00,66.4,55.5,29.85,NNW,338,0.7,1.6,68,0.00,,,0.00,WUHU216HW,2013-06-18 15:17:00,
2013-06-18 09:18:00,66.6,55.3,29.85,NE,45,1.6,1.6,67,0.00,,,0.00,WUHU216HW,2013-06-18 15:18:00,
2013-06-18 09:19:00,66.6,54.8,29.85,ENE,68,0.9,1.6,66,0.00,,,0.00,WUHU216HW,2013-06-18 15:19:00,
2013-06-18 09:20:00,66.6,54.8,29.85,ENE,68,0.4,1.6,66,0.00,,,0.00,WUHU216HW,2013-06-18 15:20:00,
2013-06-18 09:22:00,66.6,55.3,29.85,North,0,0.2,1.6,67,0.00,,,0.00,WUHU216HW,2013-06-18 15:22:00,
2013-06-18 09:23:00,66.6,55.3,29.85,NNE,23,0.4,1.6,67,0.00,,,0.00,WUHU216HW,2013-06-18 15:23:00,
2013-06-18 09:24:00,66.6,55.3,29.85,NNW,338,0.4,1.6,67,0.00,,,0.00,WUHU216HW,2013-06-18 15:24:00,
2013-06-18 09:25:00,66.6,55.3,29.85,NNW,338,0.4,1.6,67,0.00,,,0.00,WUHU216HW,2013-06-18 15:25:00,
2013-06-18 09:27:00,67.0,55.6,29.85,West,270,0.4,1.6,67,0.00,,,0.00,WUHU216HW,2013-06-18 15:27:00,
2013-06-18 09:28:00,67.0,55.6,29.85,West,270,0.2,1.1,67,0.00,,,0.00,WUHU216HW,2013-06-18 15:28:00,
2013-06-18 09:29:00,67.0,55.6,29.85,West,270,0.2,1.1,67,0.00,,,0.00,WUHU216HW,2013-06-18 15:29:00,
2013-06-18 09:30:00,67.0,55.6,29.85,West,270,0.2,1.1,67,0.00,,,0.00,WUHU216HW,2013-06-18 15:30:00,
2013-06-18 09:31:00,67.3,55.5,29.85,NNW,338,1.6,1.6,66,0.00,,,0.00,WUHU216HW,2013-06-18 15:31:00,
2013-06-18 09:33:00,67.3,55.5,29.85,WNW,293,1.8,1.8,66,0.00,,,0.00,WUHU216HW,2013-06-18 15:33:00,
2013-06-18 09:34:00,67.5,55.7,29.85,SSE,158,0.4,1.8,66,0.00,,,0.00,WUHU216HW,2013-06-18 15:34:00,
2013-06-18 09:35:00,67.7,55.9,29.85,NNW,338,1.3,1.8,66,0.00,,,0.00,WUHU216HW,2013-06-18 15:35:00,
2013-06-18 09:36:00,67.7,55.4,29.84,North,0,2.9,2.9,65,0.00,,,0.00,WUHU216HW,2013-06-18 15:36:00,
2013-06-18 09:38:00,67.9,55.6,29.84,North,0,0.2,2.9,65,0.00,,,0.00,WUHU216HW,2013-06-18 15:38:00,
2013-06-18 09:40:00,67.9,55.6,29.84,NNW,338,0.2,2.9,65,0.00,,,0.00,WUHU216HW,2013-06-18 15:40:00,
2013-06-18 09:41:00,68.0,55.8,29.84,NNW,338,0.9,2.9,65,0.00,,,0.00,WUHU216HW,2013-06-18 15:41:00,
2013-06-18 09:43:00,68.2,56.0,29.84,NNW,338,0.4,2.9,65,0.00,,,0.00,WUHU216HW,2013-06-18 15:43:00,
2013-06-18 09:45:00,68.4,56.2,29.84,NNE,23,1.1,2.9,65,0.00,,,0.00,WUHU216HW,2013-06-18 15:45:00,
2013-06-18 09:46:00,68.4,56.2,29.84,East,90,0.4,2.9,65,0.00,,,0.00,WUHU216HW,2013-06-18 15:46:00,
2013-06-18 09:48:00,68.6,55.9,29.84,ENE,68,1.1,1.8,64,0.00,,,0.00,WUHU216HW,2013-06-18 15:48:00,
2013-06-18 09:50:00,68.6,55.9,29.84,ENE,68,1.1,1.8,64,0.00,,,0.00,WUHU216HW,2013-06-18 15:50:00,
2013-06-18 09:51:00,68.8,56.1,29.84,East,90,1.1,1.8,64,0.00,,,0.00,WUHU216HW,2013-06-18 15:51:00,
2013-06-18 09:52:00,68.8,56.5,29.84,ENE,68,2.2,2.2,65,0.00,,,0.00,WUHU216HW,2013-06-18 15:52:00,
2013-06-18 09:53:00,68.8,56.5,29.84,ENE,68,2.2,2.2,65,0.00,,,0.00,WUHU216HW,2013-06-18 15:53:00,
2013-06-18 09:55:00,69.1,56.4,29.84,North,0,0.2,2.2,64,0.00,,,0.00,WUHU216HW,2013-06-18 15:55:00,
2013-06-18 09:56:00,69.1,56.4,29.83,SE,135,0.0,2.2,64,0.00,,,0.00,WUHU216HW,2013-06-18 15:56:00,
2013-06-18 09:57:00,69.3,56.6,29.83,SSE,158,2.0,2.2,64,0.00,,,0.00,WUHU216HW,2013-06-18 15:57:00,
2013-06-18 09:58:00,69.3,56.6,29.83,SSE,158,2.0,2.2,64,0.00,,,0.00,WUHU216HW,2013-06-18 15:58:00,
2013-06-18 10:01:00,69.8,56.7,29.83,NNW,338,0.0,2.2,63,0.00,,,0.00,WUHU216HW,2013-06-18 16:01:00,
2013-06-18 10:02:00,69.8,56.7,29.83,NNW,338,0.0,2.2,63,0.00,,,0.00,WUHU216HW,2013-06-18 16:02:00,
2013-06-18 10:03:00,69.8,56.7,29.83,NNW,338,0.0,2.2,63,0.00,,,0.00,WUHU216HW,2013-06-18 16:03:00,
2013-06-18 10:04:00,69.8,56.7,29.83,NNW,338,0.0,2.0,63,0.00,,,0.00,WUHU216HW,2013-06-18 16:04:00,
2013-06-18 10:06:00,70.2,57.1,29.83,SSE,158,1.1,2.0,63,0.00,,,0.00,WUHU216HW,2013-06-18 16:06:00,
2013-06-18 10:07:00,70.2,57.1,29.83,SSE,158,1.1,2.0,63,0.00,,,0.00,WUHU216HW,2013-06-18 16:07:00,
2013-06-18 10:08:00,70.4,57.2,29.83,SSE,158,0.0,2.0,63,0.00,,,0.00,WUHU216HW,2013-06-18 16:08:00,
2013-06-18 10:09:00,70.4,57.2,29.83,SSE,158,0.0,2.0,63,0.00,,,0.00,WUHU216HW,2013-06-18 16:09:00,
2013-06-18 10:11:00,70.4,57.2,29.83,SSE,158,0.0,1.1,63,0.00,,,0.00,WUHU216HW,2013-06-18 16:11:00,
2013-06-18 10:12:00,70.9,57.2,29.83,South,180,1.8,1.8,62,0.00,,,0.00,WUHU216HW,2013-06-18 16:12:00,
2013-06-18 10:14:00,71.1,57.9,29.83,SE,135,1.3,1.8,63,0.00,,,0.00,WUHU216HW,2013-06-18 16:14:00,
2013-06-18 10:17:00,71.5,58.2,29.83,NNE,23,0.9,1.8,63,0.00,,,0.00,WUHU216HW,2013-06-18 16:17:00,
2013-06-18 10:19:00,71.6,58.0,29.83,NNE,23,0.9,1.8,62,0.00,,,0.00,WUHU216HW,2013-06-18 16:19:00,
2013-06-18 10:20:00,71.5,57.8,29.82,West,270,0.7,1.8,62,0.00,,,0.00,WUHU216HW,2013-06-18 16:20:00,
2013-06-18 10:22:00,71.5,57.8,29.82,North,0,0.7,2.7,62,0.00,,,0.00,WUHU216HW,2013-06-18 16:22:00,
2013-06-18 10:24:00,71.5,57.8,29.82,South,180,0.9,2.7,62,0.00,,,0.00,WUHU216HW,2013-06-18 16:24:00,
2013-06-18 10:25:00,71.6,58.0,29.82,NNW,338,1.6,2.7,62,0.00,,,0.00,WUHU216HW,2013-06-18 16:25:00,
2013-06-18 10:27:00,71.6,57.5,29.82,SW,225,1.8,2.7,61,0.00,,,0.00,WUHU216HW,2013-06-18 16:27:00,
2013-06-18 10:29:00,71.8,57.7,29.82,WSW,248,1.1,2.7,61,0.00,,,0.00,WUHU216HW,2013-06-18 16:29:00,
2013-06-18 10:30:00,71.8,57.7,29.82,WSW,248,1.1,2.7,61,0.00,,,0.00,WUHU216HW,2013-06-18 16:30:00,
2013-06-18 10:32:00,72.4,58.1,29.82,SW,225,0.9,2.5,61,0.00,,,0.00,WUHU216HW,2013-06-18 16:32:00,
2013-06-18 10:33:00,72.4,58.1,29.82,SW,225,0.9,2.5,61,0.00,,,0.00,WUHU216HW,2013-06-18 16:33:00,
2013-06-18 10:34:00,72.4,58.1,29.82,SW,225,0.9,2.5,61,0.00,,,0.00,WUHU216HW,2013-06-18 16:34:00,
2013-06-18 10:35:00,72.4,58.1,29.82,SW,225,0.9,2.5,61,0.00,,,0.00,WUHU216HW,2013-06-18 16:35:00,
2013-06-18 10:37:00,73.3,58.5,29.82,North,0,1.1,2.5,60,0.00,,,0.00,WUHU216HW,2013-06-18 16:37:00,
2013-06-18 10:38:00,73.3,58.1,29.82,North,0,0.7,2.5,59,0.00,,,0.00,WUHU216HW,2013-06-18 16:38:00,
2013-06-18 10:40:00,73.4,58.1,29.82,ESE,113,0.4,2.5,59,0.00,,,0.00,WUHU216HW,2013-06-18 16:40:00,
2013-06-18 10:43:00,73.4,58.1,29.82,SE,135,0.4,2.0,59,0.00,,,0.00,WUHU216HW,2013-06-18 16:43:00,
2013-06-18 10:45:00,74.0,58.7,29.81,West,270,1.3,2.0,59,0.00,,,0.00,WUHU216HW,2013-06-18 16:45:00,
2013-06-18 10:48:00,74.3,58.6,29.81,West,270,1.6,2.0,58,0.00,,,0.00,WUHU216HW,2013-06-18 16:48:00,
2013-06-18 10:49:00,74.3,58.6,29.81,West,270,1.1,2.0,58,0.00,,,0.00,WUHU216HW,2013-06-18 16:49:00,
2013-06-18 10:50:00,74.3,58.6,29.81,West,270,0.7,2.0,58,0.00,,,0.00,WUHU216HW,2013-06-18 16:50:00,
2013-06-18 10:53:00,74.7,58.4,29.81,NNE,23,1.6,2.0,57,0.00,,,0.00,WUHU216HW,2013-06-18 16:53:00,
2013-06-18 10:54:00,74.7,58.4,29.81,NNE,23,1.6,2.0,57,0.00,,,0.00,WUHU216HW,2013-06-18 16:54:00,
2013-06-18 10:55:00,74.7,58.4,29.81,NNE,23,1.6,2.0,57,0.00,,,0.00,WUHU216HW,2013-06-18 16:55:00,
2013-06-18 10:58:00,74.9,58.6,29.80,South,180,2.5,2.5,57,0.00,,,0.00,WUHU216HW,2013-06-18 16:58:00,
2013-06-18 10:59:00,75.1,58.8,29.80,SSW,203,1.1,2.5,57,0.00,,,0.00,WUHU216HW,2013-06-18 16:59:00,
2013-06-18 11:00:00,75.1,58.3,29.80,South,180,1.1,2.5,56,0.00,,,0.00,WUHU216HW,2013-06-18 17:00:00,
2013-06-18 11:03:00,75.4,58.6,29.80,SSW,203,1.1,2.5,56,0.00,,,0.00,WUHU216HW,2013-06-18 17:03:00,
2013-06-18 11:04:00,75.6,58.8,29.80,ESE,113,1.8,2.5,56,0.00,,,0.00,WUHU216HW,2013-06-18 17:04:00,
2013-06-18 11:05:00,75.6,58.8,29.80,ESE,113,1.8,2.5,56,0.00,,,0.00,WUHU216HW,2013-06-18 17:05:00,
2013-06-18 11:06:00,75.6,58.8,29.80,ESE,113,1.8,2.5,56,0.00,,,0.00,WUHU216HW,2013-06-18 17:06:00,
2013-06-18 11:08:00,75.8,58.4,29.80,SSE,158,2.2,2.2,55,0.00,,,0.00,WUHU216HW,2013-06-18 17:08:00,
2013-06-18 11:09:00,75.8,58.4,29.80,SSE,158,2.2,2.2,55,0.00,,,0.00,WUHU216HW,2013-06-18 17:09:00,
2013-06-18 11:10:00,75.8,58.4,29.80,SSE,158,2.2,2.2,55,0.00,,,0.00,WUHU216HW,2013-06-18 17:10:00,
2013-06-18 11:11:00,76.3,59.0,29.80,NW,315,0.7,2.2,55,0.00,,,0.00,WUHU216HW,2013-06-18 17:11:00,
2013-06-18 11:14:00,76.3,59.0,29.80,NW,315,0.7,2.2,55,0.00,,,0.00,WUHU216HW,2013-06-18 17:14:00,
2013-06-18 11:15:00,76.9,59.4,29.80,SE,135,2.0,2.2,55,0.00,,,0.00,WUHU216HW,2013-06-18 17:15:00,
2013-06-18 11:16:00,77.0,59.6,29.80,SE,135,1.1,2.2,55,0.00,,,0.00,WUHU216HW,2013-06-18 17:16:00,
2013-06-18 11:19:00,77.4,59.4,29.80,SW,225,1.8,3.6,54,0.00,,,0.00,WUHU216HW,2013-06-18 17:19:00,
2013-06-18 11:20:00,77.8,59.8,29.80,South,180,1.8,3.6,54,0.00,,,0.00,WUHU216HW,2013-06-18 17:20:00,
2013-06-18 11:21:00,77.8,59.8,29.80,SSE,158,1.1,3.6,54,0.00,,,0.00,WUHU216HW,2013-06-18 17:21:00,
2013-06-18 11:24:00,78.3,59.8,29.80,WSW,248,0.9,3.6,53,0.00,,,0.00,WUHU216HW,2013-06-18 17:24:00,
2013-06-18 11:26:00,78.5,60.0,29.80,SSE,158,0.7,3.6,53,0.00,,,0.00,WUHU216HW,2013-06-18 17:26:00,
2013-06-18 11:27:00,78.5,60.0,29.80,SSE,158,0.7,3.6,53,0.00,,,0.00,WUHU216HW,2013-06-18 17:27:00,
2013-06-18 11:29:00,78.5,60.0,29.80,SSE,158,0.7,1.8,53,0.00,,,0.00,WUHU216HW,2013-06-18 17:29:00,
2013-06-18 11:30:00,78.8,59.8,29.80,East,90,0.7,1.1,52,0.00,,,0.00,WUHU216HW,2013-06-18 17:30:00,
2013-06-18 11:31:00,78.8,59.8,29.80,ESE,113,0.4,1.1,52,0.00,,,0.00,WUHU216HW,2013-06-18 17:31:00,
2013-06-18 11:32:00,79.0,59.9,29.80,NNE,23,1.1,1.1,52,0.00,,,0.00,WUHU216HW,2013-06-18 17:32:00,
2013-06-18 11:34:00,79.0,59.9,29.80,SSE,158,1.6,1.6,52,0.00,,,0.00,WUHU216HW,2013-06-18 17:34:00,
2013-06-18 11:35:00,79.0,59.9,29.80,SSE,158,1.6,1.6,52,0.00,,,0.00,WUHU216HW,2013-06-18 17:35:00,
2013-06-18 11:36:00,79.2,60.0,29.80,SSW,203,0.9,1.6,52,0.00,,,0.00,WUHU216HW,2013-06-18 17:36:00,
2013-06-18 11:38:00,79.2,60.0,29.80,ESE,113,1.8,1.8,52,0.00,,,0.00,WUHU216HW,2013-06-18 17:38:00,
2013-06-18 11:39:00,79.2,59.5,29.79,ESE,113,1.8,1.8,51,0.00,,,0.00,WUHU216HW,2013-06-18 17:39:00,
2013-06-18 11:40:00,79.2,59.5,29.80,ESE,113,1.1,1.8,51,0.00,,,0.00,WUHU216HW,2013-06-18 17:40:00,
2013-06-18 11:42:00,79.0,58.9,29.79,ENE,68,0.4,1.8,50,0.00,,,0.00,WUHU216HW,2013-06-18 17:42:00,
2013-06-18 11:43:00,79.2,59.5,29.80,ENE,68,1.1,1.8,51,0.00,,,0.00,WUHU216HW,2013-06-18 17:43:00,
2013-06-18 11:44:00,79.2,59.1,29.80,ENE,68,1.1,1.8,50,0.00,,,0.00,WUHU216HW,2013-06-18 17:44:00,
2013-06-18 11:45:00,79.2,59.1,29.80,NNW,338,1.8,1.8,50,0.00,,,0.00,WUHU216HW,2013-06-18 17:45:00,
2013-06-18 11:47:00,79.2,59.1,29.80,NNW,338,1.8,1.8,50,0.00,,,0.00,WUHU216HW,2013-06-18 17:47:00,
2013-06-18 11:48:00,79.2,59.1,29.80,North,0,1.3,1.8,50,0.00,,,0.00,WUHU216HW,2013-06-18 17:48:00,
2013-06-18 11:49:00,79.2,58.4,29.79,NE,45,2.2,2.2,49,0.00,,,0.00,WUHU216HW,2013-06-18 17:49:00,
2013-06-18 11:50:00,79.2,59.1,29.79,NNE,23,1.8,2.2,50,0.00,,,0.00,WUHU216HW,2013-06-18 17:50:00,
2013-06-18 11:51:00,79.2,59.1,29.79,NNE,23,1.8,2.2,50,0.00,,,0.00,WUHU216HW,2013-06-18 17:51:00,
2013-06-18 11:52:00,79.0,58.9,29.79,ENE,68,1.1,2.2,50,0.00,,,0.00,WUHU216HW,2013-06-18 17:52:00,
2013-06-18 11:53:00,79.0,58.2,29.79,ENE,68,0.4,2.2,49,0.00,,,0.00,WUHU216HW,2013-06-18 17:53:00,
2013-06-18 11:55:00,78.8,58.1,29.79,SE,135,0.2,2.2,49,0.00,,,0.00,WUHU216HW,2013-06-18 17:55:00,
2013-06-18 11:56:00,78.7,57.9,29.79,NNW,338,0.4,2.2,49,0.00,,,0.00,WUHU216HW,2013-06-18 17:56:00,
2013-06-18 11:57:00,78.7,57.9,29.79,ESE,113,0.9,2.2,49,0.00,,,0.00,WUHU216HW,2013-06-18 17:57:00,
2013-06-18 11:58:00,78.7,57.9,29.79,East,90,0.4,2.2,49,0.00,,,0.00,WUHU216HW,2013-06-18 17:58:00,
2013-06-18 12:00:00,78.7,58.5,29.79,NNW,338,0.2,1.8,50,0.00,,,0.00,WUHU216HW,2013-06-18 18:00:00,
2013-06-18 12:01:00,78.8,58.7,29.79,ESE,113,0.7,1.6,50,0.00,,,0.00,WUHU216HW,2013-06-18 18:01:00,
2013-06-18 12:02:00,78.8,58.7,29.79,SW,225,0.9,1.6,50,0.00,,,0.00,WUHU216HW,2013-06-18 18:02:00,
2013-06-18 12:03:00,78.8,58.7,29.79,SW,225,0.9,1.6,50,0.00,,,0.00,WUHU216HW,2013-06-18 18:03:00,
2013-06-18 12:05:00,78.8,58.7,29.78,SW,225,0.9,1.1,50,0.00,,,0.00,WUHU216HW,2013-06-18 18:05:00,
2013-06-18 12:06:00,79.2,58.4,29.78,NW,315,1.6,1.6,49,0.00,,,0.00,WUHU216HW,2013-06-18 18:06:00,
2013-06-18 12:08:00,79.2,58.4,29.78,NW,315,1.6,1.6,49,0.00,,,0.00,WUHU216HW,2013-06-18 18:08:00,
2013-06-18 12:10:00,79.2,60.0,29.78,NNE,23,0.9,1.6,52,0.00,,,0.00,WUHU216HW,2013-06-18 18:10:00,
2013-06-18 12:11:00,79.2,58.4,29.78,NE,45,4.5,4.5,49,0.00,,,0.00,WUHU216HW,2013-06-18 18:11:00,
2013-06-18 12:13:00,78.8,57.4,29.78,NNE,23,4.5,4.5,48,0.00,,,0.00,WUHU216HW,2013-06-18 18:13:00,
2013-06-18 12:14:00,78.8,58.1,29.78,SW,225,1.3,4.5,49,0.00,,,0.00,WUHU216HW,2013-06-18 18:14:00,
2013-06-18 12:15:00,78.8,58.1,29.78,SW,225,0.4,4.5,49,0.00,,,0.00,WUHU216HW,2013-06-18 18:15:00,
2013-06-18 12:17:00,78.8,59.2,29.78,ESE,113,1.3,4.5,51,0.00,,,0.00,WUHU216HW,2013-06-18 18:17:00,
2013-06-18 12:18:00,78.8,59.2,29.78,ESE,113,1.3,4.5,51,0.00,,,0.00,WUHU216HW,2013-06-18 18:18:00,
2013-06-18 12:19:00,78.8,59.2,29.78,ESE,113,1.3,4.5,51,0.00,,,0.00,WUHU216HW,2013-06-18 18:19:00,
2013-06-18 12:20:00,78.8,59.2,29.78,ESE,113,1.3,4.5,51,0.00,,,0.00,WUHU216HW,2013-06-18 18:20:00,
2013-06-18 12:22:00,79.0,58.9,29.78,ENE,68,3.8,4.5,50,0.00,,,0.00,WUHU216HW,2013-06-18 18:22:00,
2013-06-18 12:23:00,79.0,58.9,29.78,ENE,68,3.8,3.8,50,0.00,,,0.00,WUHU216HW,2013-06-18 18:23:00,
2013-06-18 12:24:00,79.0,58.9,29.78,ENE,68,3.8,3.8,50,0.00,,,0.00,WUHU216HW,2013-06-18 18:24:00,
2013-06-18 12:26:00,79.4,59.1,29.78,ESE,113,1.6,3.8,50,0.00,,,0.00,WUHU216HW,2013-06-18 18:26:00,
2013-06-18 12:27:00,79.4,59.7,29.78,SE,135,1.3,3.8,51,0.00,,,0.00,WUHU216HW,2013-06-18 18:27:00,
2013-06-18 12:28:00,79.6,59.9,29.78,SE,135,2.0,3.8,51,0.00,,,0.00,WUHU216HW,2013-06-18 18:28:00,
2013-06-18 12:30:00,79.9,59.7,29.78,NW,315,1.1,3.8,50,0.00,,,0.00,WUHU216HW,2013-06-18 18:30:00,
2013-06-18 12:31:00,80.1,60.3,29.78,ENE,68,0.9,3.8,51,0.00,,,0.00,WUHU216HW,2013-06-18 18:31:00,
2013-06-18 12:32:00,80.3,59.9,29.78,ENE,68,1.1,3.8,50,0.00,,,0.00,WUHU216HW,2013-06-18 18:32:00,
2013-06-18 12:34:00,80.3,59.4,29.78,NE,45,1.3,3.8,49,0.00,,,0.00,WUHU216HW,2013-06-18 18:34:00,
2013-06-18 12:35:00,80.3,59.9,29.77,SSE,158,0.7,2.0,50,0.00,,,0.00,WUHU216HW,2013-06-18 18:35:00,
2013-06-18 12:36:00,80.3,59.9,29.77,East,90,0.4,2.0,50,0.00,,,0.00,WUHU216HW,2013-06-18 18:36:00,
2013-06-18 12:37:00,80.3,59.4,29.77,NE,45,4.3,4.3,49,0.00,,,0.00,WUHU216HW,2013-06-18 18:37:00,
2013-06-18 12:38:00,80.3,59.4,29.77,NE,45,4.3,4.3,49,0.00,,,0.00,WUHU216HW,2013-06-18 18:38:00,
2013-06-18 12:39:00,80.3,59.4,29.77,NE,45,2.9,4.7,49,0.00,,,0.00,WUHU216HW,2013-06-18 18:39:00,
2013-06-18 12:40:00,80.3,59.4,29.77,NNW,338,2.5,4.7,49,0.00,,,0.00,WUHU216HW,2013-06-18 18:40:00,
2013-06-18 12:41:00,80.3,59.4,29.77,NNW,338,2.5,4.7,49,0.00,,,0.00,WUHU216HW,2013-06-18 18:41:00,
2013-06-18 12:42:00,80.3,59.4,29.77,NNW,338,2.5,4.7,49,0.00,,,0.00,WUHU216HW,2013-06-18 18:42:00,
2013-06-18 12:43:00,80.3,58.1,29.77,NNE,23,3.4,4.7,47,0.00,,,0.00,WUHU216HW,2013-06-18 18:43:00,
2013-06-18 12:44:00,80.3,57.5,29.77,NNE,23,1.1,4.7,46,0.00,,,0.00,WUHU216HW,2013-06-18 18:44:00,
2013-06-18 12:45:00,80.3,59.4,29.77,NE,45,2.2,4.7,49,0.00,,,0.00,WUHU216HW,2013-06-18 18:45:00,
2013-06-18 12:47:00,80.3,59.4,29.77,NE,45,3.8,4.7,49,0.00,,,0.00,WUHU216HW,2013-06-18 18:47:00,
2013-06-18 12:48:00,80.3,59.9,29.77,NE,45,3.1,3.8,50,0.00,,,0.00,WUHU216HW,2013-06-18 18:48:00,
2013-06-18 12:49:00,80.3,59.9,29.77,NE,45,3.1,3.8,50,0.00,,,0.00,WUHU216HW,2013-06-18 18:49:00,
2013-06-18 12:50:00,80.3,59.9,29.77,NE,45,3.1,3.8,50,0.00,,,0.00,WUHU216HW,2013-06-18 18:50:00,
2013-06-18 12:52:00,80.6,60.9,29.77,NNE,23,1.8,3.8,51,0.00,,,0.00,WUHU216HW,2013-06-18 18:52:00,
2013-06-18 12:53:00,80.5,60.1,29.77,East,90,1.6,3.8,50,0.00,,,0.00,WUHU216HW,2013-06-18 18:53:00,
2013-06-18 12:54:00,80.6,60.3,29.77,ENE,68,3.4,3.8,50,0.00,,,0.00,WUHU216HW,2013-06-18 18:54:00,
2013-06-18 12:55:00,80.6,60.3,29.77,ENE,68,3.4,3.8,50,0.00,,,0.00,WUHU216HW,2013-06-18 18:55:00,
2013-06-18 12:58:00,81.0,60.7,29.77,ESE,113,2.5,3.4,50,0.00,,,0.00,WUHU216HW,2013-06-18 18:58:00,
2013-06-18 12:59:00,81.0,60.7,29.77,ESE,113,2.5,3.4,50,0.00,,,0.00,WUHU216HW,2013-06-18 18:59:00,
2013-06-18 13:00:00,81.2,60.2,29.77,SE,135,4.0,4.0,49,0.00,,,0.00,WUHU216HW,2013-06-18 19:00:00,
2013-06-18 13:03:00,81.2,60.2,29.77,ENE,68,4.3,4.3,49,0.00,,,0.00,WUHU216HW,2013-06-18 19:03:00,
2013-06-18 13:04:00,81.2,60.2,29.77,ENE,68,4.3,4.3,49,0.00,,,0.00,WUHU216HW,2013-06-18 19:04:00,
2013-06-18 13:05:00,81.0,60.0,29.77,NNW,338,1.1,4.3,49,0.00,,,0.00,WUHU216HW,2013-06-18 19:05:00,
2013-06-18 13:08:00,81.2,61.3,29.77,ENE,68,0.7,4.3,51,0.00,,,0.00,WUHU216HW,2013-06-18 19:08:00,
2013-06-18 13:09:00,81.2,61.3,29.76,East,90,1.1,4.3,51,0.00,,,0.00,WUHU216HW,2013-06-18 19:09:00,
2013-06-18 13:10:00,81.4,61.5,29.76,NE,45,2.7,4.3,51,0.00,,,0.00,WUHU216HW,2013-06-18 19:10:00,
2013-06-18 13:11:00,81.4,60.9,29.76,NE,45,4.5,4.5,50,0.00,,,0.00,WUHU216HW,2013-06-18 19:11:00,
2013-06-18 13:13:00,81.4,60.3,29.76,NE,45,4.7,4.7,49,0.00,,,0.00,WUHU216HW,2013-06-18 19:13:00,
2013-06-18 13:14:00,81.4,60.3,29.76,NE,45,4.7,4.7,49,0.00,,,0.00,WUHU216HW,2013-06-18 19:14:00,
2013-06-18 13:15:00,81.4,60.3,29.76,NE,45,4.7,4.7,49,0.00,,,0.00,WUHU216HW,2013-06-18 19:15:00,
2013-06-18 13:16:00,81.4,60.3,29.76,ENE,68,0.9,4.7,49,0.00,,,0.00,WUHU216HW,2013-06-18 19:16:00,
2013-06-18 13:19:00,81.5,60.5,29.76,NE,45,2.5,4.7,49,0.00,,,0.00,WUHU216HW,2013-06-18 19:19:00,
2013-06-18 13:21:00,81.5,60.5,29.76,NE,45,2.5,5.4,49,0.00,,,0.00,WUHU216HW,2013-06-18 19:21:00,
2013-06-18 13:24:00,81.5,60.5,29.76,NE,45,2.5,5.4,49,0.00,,,0.00,WUHU216HW,2013-06-18 19:24:00,
2013-06-18 13:26:00,81.7,60.7,29.76,SSW,203,1.6,5.4,49,0.00,,,0.00,WUHU216HW,2013-06-18 19:26:00,
2013-06-18 13:29:00,81.9,61.5,29.75,ENE,68,7.2,7.2,50,0.00,,,0.00,WUHU216HW,2013-06-18 19:29:00,
2013-06-18 13:31:00,82.1,61.6,29.75,NNW,338,1.8,7.2,50,0.00,,,0.00,WUHU216HW,2013-06-18 19:31:00,
2013-06-18 13:34:00,82.1,61.6,29.75,NNW,338,1.8,7.2,50,0.00,,,0.00,WUHU216HW,2013-06-18 19:34:00,
2013-06-18 13:35:00,82.1,61.6,29.75,NNW,338,1.8,7.2,50,0.00,,,0.00,WUHU216HW,2013-06-18 19:35:00,
2013-06-18 13:36:00,82.3,61.7,29.75,NNE,23,6.5,7.2,50,0.00,,,0.00,WUHU216HW,2013-06-18 19:36:00,
2013-06-18 13:37:00,82.3,61.7,29.75,NNE,23,6.5,7.2,50,0.00,,,0.00,WUHU216HW,2013-06-18 19:37:00,
2013-06-18 13:40:00,82.6,62.7,29.75,NNW,338,1.8,6.5,51,0.00,,,0.00,WUHU216HW,2013-06-18 19:40:00,
2013-06-18 13:41:00,82.6,62.7,29.75,NNW,338,1.8,6.5,51,0.00,,,0.00,WUHU216HW,2013-06-18 19:41:00,
2013-06-18 13:42:00,82.8,62.3,29.75,NNE,23,5.4,6.5,50,0.00,,,0.00,WUHU216HW,2013-06-18 19:42:00,
2013-06-18 13:45:00,82.6,62.1,29.75,NNE,23,1.6,6.5,50,0.00,,,0.00,WUHU216HW,2013-06-18 19:45:00,
2013-06-18 13:46:00,82.8,62.8,29.75,ENE,68,3.4,6.5,51,0.00,,,0.00,WUHU216HW,2013-06-18 19:46:00,
2013-06-18 13:47:00,82.8,62.8,29.75,ENE,68,3.4,6.5,51,0.00,,,0.00,WUHU216HW,2013-06-18 19:47:00,
2013-06-18 13:50:00,82.8,63.4,29.74,ENE,68,4.7,6.9,52,0.00,,,0.00,WUHU216HW,2013-06-18 19:50:00,
2013-06-18 13:51:00,83.0,63.0,29.74,NNE,23,4.7,6.9,51,0.00,,,0.00,WUHU216HW,2013-06-18 19:51:00,
2013-06-18 13:52:00,83.0,63.0,29.74,NNE,23,4.7,6.9,51,0.00,,,0.00,WUHU216HW,2013-06-18 19:52:00,
2013-06-18 13:55:00,83.2,63.7,29.74,NE,45,2.2,6.9,52,0.00,,,0.00,WUHU216HW,2013-06-18 19:55:00,
2013-06-18 13:56:00,83.2,63.2,29.74,ENE,68,2.9,6.9,51,0.00,,,0.00,WUHU216HW,2013-06-18 19:56:00,
2013-06-18 13:57:00,83.2,63.2,29.74,ENE,68,2.9,6.9,51,0.00,,,0.00,WUHU216HW,2013-06-18 19:57:00,
2013-06-18 14:00:00,83.3,63.9,29.74,SW,225,3.1,4.9,52,0.00,,,0.00,WUHU216HW,2013-06-18 20:00:00,
2013-06-18 14:01:00,83.5,64.1,29.74,North,0,2.9,4.9,52,0.00,,,0.00,WUHU216HW,2013-06-18 20:01:00,
2013-06-18 14:02:00,83.7,64.3,29.74,ENE,68,3.4,4.0,52,0.00,,,0.00,WUHU216HW,2013-06-18 20:02:00,
2013-06-18 14:06:00,83.9,63.9,29.73,ENE,68,2.9,4.0,51,0.00,,,0.00,WUHU216HW,2013-06-18 20:06:00,
2013-06-18 14:07:00,84.1,64.1,29.73,ENE,68,3.6,4.0,51,0.00,,,0.00,WUHU216HW,2013-06-18 20:07:00,
2013-06-18 14:08:00,84.1,64.1,29.73,NNE,23,4.3,4.3,51,0.00,,,0.00,WUHU216HW,2013-06-18 20:08:00,
2013-06-18 14:11:00,84.2,63.7,29.73,North,0,2.2,4.9,50,0.00,,,0.00,WUHU216HW,2013-06-18 20:11:00,
2013-06-18 14:12:00,84.2,64.3,29.73,East,90,1.8,4.9,51,0.00,,,0.00,WUHU216HW,2013-06-18 20:12:00,
2013-06-18 14:13:00,84.2,64.3,29.73,East,90,1.8,4.9,51,0.00,,,0.00,WUHU216HW,2013-06-18 20:13:00,
2013-06-18 14:16:00,84.1,63.5,29.73,NE,45,2.7,4.9,50,0.00,,,0.00,WUHU216HW,2013-06-18 20:16:00,
2013-06-18 14:17:00,84.1,63.5,29.73,NE,45,2.7,4.9,50,0.00,,,0.00,WUHU216HW,2013-06-18 20:17:00,
2013-06-18 14:18:00,84.1,63.5,29.73,NE,45,2.7,4.9,50,0.00,,,0.00,WUHU216HW,2013-06-18 20:18:00,
2013-06-18 14:21:00,84.2,65.3,29.72,East,90,4.7,4.7,53,0.00,,,0.00,WUHU216HW,2013-06-18 20:21:00,
2013-06-18 14:22:00,84.2,63.7,29.72,NE,45,6.9,6.9,50,0.00,,,0.00,WUHU216HW,2013-06-18 20:22:00,
2013-06-18 14:23:00,84.2,63.7,29.72,NE,45,6.9,6.9,50,0.00,,,0.00,WUHU216HW,2013-06-18 20:23:00,
2013-06-18 14:26:00,84.2,64.3,29.72,NE,45,1.8,6.9,51,0.00,,,0.00,WUHU216HW,2013-06-18 20:26:00,
2013-06-18 14:27:00,84.2,64.3,29.72,NE,45,4.0,6.9,51,0.00,,,0.00,WUHU216HW,2013-06-18 20:27:00,
2013-06-18 14:28:00,84.2,63.7,29.72,NNE,23,7.4,7.4,50,0.00,,,0.00,WUHU216HW,2013-06-18 20:28:00,
2013-06-18 14:31:00,84.2,63.7,29.72,ENE,68,1.3,7.4,50,0.00,,,0.00,WUHU216HW,2013-06-18 20:31:00,
2013-06-18 14:32:00,84.2,63.7,29.72,ENE,68,1.3,7.4,50,0.00,,,0.00,WUHU216HW,2013-06-18 20:32:00,
2013-06-18 14:33:00,84.4,64.5,29.72,SE,135,1.6,7.4,51,0.00,,,0.00,WUHU216HW,2013-06-18 20:33:00,
2013-06-18 14:36:00,84.6,65.6,29.72,NNE,23,7.4,7.4,53,0.00,,,0.00,WUHU216HW,2013-06-18 20:36:00,
2013-06-18 14:37:00,84.6,65.6,29.72,NNE,23,7.4,7.4,53,0.00,,,0.00,WUHU216HW,2013-06-18 20:37:00,
2013-06-18 14:39:00,84.6,64.1,29.71,East,90,0.9,7.4,50,0.00,,,0.00,WUHU216HW,2013-06-18 20:39:00,
2013-06-18 14:42:00,84.6,64.5,29.71,ENE,68,0.9,7.4,51,0.00,,,0.00,WUHU216HW,2013-06-18 20:42:00,
2013-06-18 14:44:00,84.8,64.7,29.71,SSE,158,3.6,7.4,51,0.00,,,0.00,WUHU216HW,2013-06-18 20:44:00,
2013-06-18 14:47:00,84.8,63.5,29.71,NNE,23,5.8,7.4,49,0.00,,,0.00,WUHU216HW,2013-06-18 20:47:00,
2013-06-18 14:49:00,84.8,63.5,29.71,NNE,23,5.8,6.9,49,0.00,,,0.00,WUHU216HW,2013-06-18 20:49:00,
2013-06-18 14:52:00,84.8,63.5,29.71,NE,45,3.8,6.9,49,0.00,,,0.00,WUHU216HW,2013-06-18 20:52:00,
2013-06-18 14:53:00,84.8,63.5,29.71,NE,45,3.8,6.9,49,0.00,,,0.00,WUHU216HW,2013-06-18 20:53:00,
2013-06-18 14:54:00,85.1,64.5,29.71,NE,45,2.7,6.9,50,0.00,,,0.00,WUHU216HW,2013-06-18 20:54:00,
2013-06-18 14:57:00,85.1,65.1,29.71,NE,45,2.7,5.8,51,0.00,,,0.00,WUHU216HW,2013-06-18 20:57:00,
2013-06-18 14:58:00,85.1,65.1,29.71,NE,45,2.7,5.8,51,0.00,,,0.00,WUHU216HW,2013-06-18 20:58:00,
2013-06-18 14:59:00,85.3,64.1,29.71,NNE,23,3.8,3.8,49,0.00,,,0.00,WUHU216HW,2013-06-18 20:59:00,
2013-06-18 15:02:00,85.5,65.3,29.71,East,90,2.0,3.8,51,0.00,,,0.00,WUHU216HW,2013-06-18 21:02:00,
2013-06-18 15:03:00,85.7,65.0,29.71,NNE,23,5.6,5.6,50,0.00,,,0.00,WUHU216HW,2013-06-18 21:03:00,
2013-06-18 15:05:00,85.7,64.4,29.71,NNE,23,3.1,5.6,49,0.00,,,0.00,WUHU216HW,2013-06-18 21:05:00,
2013-06-18 15:07:00,86.0,65.3,29.71,NE,45,2.0,5.6,50,0.00,,,0.00,WUHU216HW,2013-06-18 21:07:00,
2013-06-18 15:08:00,86.0,65.3,29.71,ENE,68,1.3,5.6,50,0.00,,,0.00,WUHU216HW,2013-06-18 21:08:00,
2013-06-18 15:09:00,86.0,65.3,29.71,ENE,68,1.3,5.6,50,0.00,,,0.00,WUHU216HW,2013-06-18 21:09:00,
2013-06-18 15:10:00,86.0,65.3,29.71,ENE,68,1.3,5.6,50,0.00,,,0.00,WUHU216HW,2013-06-18 21:10:00,
2013-06-18 15:12:00,86.8,63.5,29.71,North,0,2.5,5.6,46,0.00,,,0.00,WUHU216HW,2013-06-18 21:12:00,
2013-06-18 15:13:00,86.8,63.5,29.71,ENE,68,1.6,4.0,46,0.00,,,0.00,WUHU216HW,2013-06-18 21:13:00,
2013-06-18 15:14:00,86.8,63.5,29.71,ENE,68,1.6,4.0,46,0.00,,,0.00,WUHU216HW,2013-06-18 21:14:00,
2013-06-18 15:15:00,87.1,63.2,29.71,SSW,203,4.5,4.5,45,0.00,,,0.00,WUHU216HW,2013-06-18 21:15:00,
2013-06-18 15:18:00,87.1,63.2,29.70,SSW,203,4.5,4.5,45,0.00,,,0.00,WUHU216HW,2013-06-18 21:18:00,
2013-06-18 15:19:00,87.8,63.8,29.70,SW,225,2.0,4.5,45,0.00,,,0.00,WUHU216HW,2013-06-18 21:19:00,
2013-06-18 15:21:00,88.0,64.0,29.70,NE,45,1.1,4.5,45,0.00,,,0.00,WUHU216HW,2013-06-18 21:21:00,
2013-06-18 15:23:00,88.0,64.0,29.70,NE,45,1.1,4.5,45,0.00,,,0.00,WUHU216HW,2013-06-18 21:23:00,
2013-06-18 15:24:00,88.7,63.3,29.70,SW,225,1.1,4.5,43,0.00,,,0.00,WUHU216HW,2013-06-18 21:24:00,
2013-06-18 15:26:00,88.7,63.3,29.70,SW,225,1.1,4.5,43,0.00,,,0.00,WUHU216HW,2013-06-18 21:26:00,
2013-06-18 15:28:00,89.3,62.5,29.70,North,0,0.4,2.0,41,0.00,,,0.00,WUHU216HW,2013-06-18 21:28:00,
2013-06-18 15:29:00,89.3,63.1,29.70,ESE,113,1.8,1.8,42,0.00,,,0.00,WUHU216HW,2013-06-18 21:29:00,
2013-06-18 15:31:00,89.3,63.1,29.70,ESE,113,1.8,1.8,42,0.00,,,0.00,WUHU216HW,2013-06-18 21:31:00,
2013-06-18 15:33:00,89.6,62.7,29.70,SE,135,2.2,2.2,41,0.00,,,0.00,WUHU216HW,2013-06-18 21:33:00,
2013-06-18 15:34:00,89.6,62.7,29.70,SE,135,1.1,2.2,41,0.00,,,0.00,WUHU216HW,2013-06-18 21:34:00,
2013-06-18 15:36:00,90.2,63.3,29.70,SE,135,1.8,2.2,41,0.00,,,0.00,WUHU216HW,2013-06-18 21:36:00,
2013-06-18 15:38:00,90.4,63.4,29.70,ESE,113,0.4,2.2,41,0.00,,,0.00,WUHU216HW,2013-06-18 21:38:00,
2013-06-18 15:39:00,90.4,63.4,29.70,ESE,113,0.4,2.2,41,0.00,,,0.00,WUHU216HW,2013-06-18 21:39:00,
2013-06-18 15:41:00,90.4,63.4,29.70,ESE,113,0.4,2.2,41,0.00,,,0.00,WUHU216HW,2013-06-18 21:41:00,
2013-06-18 15:43:00,90.4,63.4,29.70,ESE,113,0.4,1.8,41,0.00,,,0.00,WUHU216HW,2013-06-18 21:43:00,
2013-06-18 15:44:00,90.4,63.4,29.70,ESE,113,0.4,1.8,41,0.00,,,0.00,WUHU216HW,2013-06-18 21:44:00,
2013-06-18 15:45:00,90.4,63.4,29.70,ESE,113,0.4,1.8,41,0.00,,,0.00,WUHU216HW,2013-06-18 21:45:00,
2013-06-18 15:46:00,90.4,63.4,29.70,ESE,113,0.4,0.4,41,0.00,,,0.00,WUHU216HW,2013-06-18 21:46:00,
2013-06-18 15:49:00,90.4,63.4,29.70,ESE,113,0.4,0.4,41,0.00,,,0.00,WUHU216HW,2013-06-18 21:49:00,
2013-06-18 16:00:00,91.8,64.1,29.68,SE,135,6.7,6.7,40,0.00,,,0.00,WUHU216HW,2013-06-18 22:00:00,
2013-06-18 16:05:00,91.8,63.3,29.69,SE,135,4.0,6.7,39,0.00,,,0.00,WUHU216HW,2013-06-18 22:05:00,
2013-06-18 16:10:00,92.0,63.5,29.68,SE,135,3.8,6.7,39,0.00,,,0.00,WUHU216HW,2013-06-18 22:10:00,
2013-06-18 16:15:00,92.3,62.9,29.68,SSE,158,6.3,6.9,38,0.00,,,0.00,WUHU216HW,2013-06-18 22:15:00,
2013-06-18 16:16:00,92.3,62.9,29.68,SSE,158,6.3,6.9,38,0.00,,,0.00,WUHU216HW,2013-06-18 22:16:00,
2013-06-18 16:20:00,91.8,63.3,29.67,SSE,158,2.7,6.9,39,0.00,,,0.00,WUHU216HW,2013-06-18 22:20:00,
2013-06-18 16:21:00,91.8,63.3,29.67,SSE,158,2.7,6.9,39,0.00,,,0.00,WUHU216HW,2013-06-18 22:21:00,
2013-06-18 16:25:00,90.9,62.5,29.68,SW,225,4.5,6.3,39,0.00,,,0.00,WUHU216HW,2013-06-18 22:25:00,
2013-06-18 16:26:00,90.9,62.5,29.68,SW,225,4.5,6.3,39,0.00,,,0.00,WUHU216HW,2013-06-18 22:26:00,
2013-06-18 16:30:00,90.5,61.3,29.68,SW,225,6.9,6.9,38,0.00,,,0.00,WUHU216HW,2013-06-18 22:30:00,
2013-06-18 16:31:00,90.5,61.3,29.68,SW,225,6.9,6.9,38,0.00,,,0.00,WUHU216HW,2013-06-18 22:31:00,
2013-06-18 16:35:00,90.4,60.4,29.68,South,180,4.9,9.2,37,0.00,,,0.00,WUHU216HW,2013-06-18 22:35:00,
2013-06-18 16:36:00,90.4,60.4,29.68,South,180,4.9,9.2,37,0.00,,,0.00,WUHU216HW,2013-06-18 22:36:00,
2013-06-18 16:41:00,90.0,58.5,29.68,South,180,4.9,9.2,35,0.00,,,0.00,WUHU216HW,2013-06-18 22:41:00,
2013-06-18 16:42:00,89.6,58.1,29.68,SSW,203,4.3,9.2,35,0.00,,,0.00,WUHU216HW,2013-06-18 22:42:00,
2013-06-18 16:46:00,89.6,58.1,29.68,SSE,158,4.7,4.9,35,0.00,,,0.00,WUHU216HW,2013-06-18 22:46:00,
2013-06-18 16:47:00,89.6,58.1,29.68,SSE,158,4.7,4.9,35,0.00,,,0.00,WUHU216HW,2013-06-18 22:47:00,
2013-06-18 16:51:00,89.6,58.1,29.68,SSE,158,1.6,4.7,35,0.00,,,0.00,WUHU216HW,2013-06-18 22:51:00,
2013-06-18 16:52:00,89.6,58.1,29.68,SSW,203,2.2,4.7,35,0.00,,,0.00,WUHU216HW,2013-06-18 22:52:00,
2013-06-18 16:56:00,90.4,58.8,29.68,SSW,203,6.5,6.5,35,0.00,,,0.00,WUHU216HW,2013-06-18 22:56:00,
2013-06-18 16:57:00,90.4,58.8,29.68,SSW,203,6.5,6.5,35,0.00,,,0.00,WUHU216HW,2013-06-18 22:57:00,
2013-06-18 16:58:00,90.4,58.8,29.68,SSW,203,6.5,6.5,35,0.00,,,0.00,WUHU216HW,2013-06-18 22:58:00,
2013-06-18 17:01:00,91.1,57.9,29.68,SSE,158,5.4,6.5,33,0.00,,,0.00,WUHU216HW,2013-06-18 23:01:00,
2013-06-18 17:02:00,91.1,57.9,29.68,SSE,158,5.4,6.5,33,0.00,,,0.00,WUHU216HW,2013-06-18 23:02:00,
2013-06-18 17:03:00,91.1,57.9,29.68,SSE,158,5.4,6.5,33,0.00,,,0.00,WUHU216HW,2013-06-18 23:03:00,
2013-06-18 17:07:00,90.9,56.9,29.68,SW,225,2.5,6.5,32,0.00,,,0.00,WUHU216HW,2013-06-18 23:07:00,
2013-06-18 17:08:00,90.9,56.9,29.68,SW,225,2.5,5.4,32,0.00,,,0.00,WUHU216HW,2013-06-18 23:08:00,
2013-06-18 17:12:00,90.5,56.6,29.68,SE,135,4.7,5.4,32,0.00,,,0.00,WUHU216HW,2013-06-18 23:12:00,
2013-06-18 17:13:00,90.5,56.6,29.68,SE,135,4.7,4.7,32,0.00,,,0.00,WUHU216HW,2013-06-18 23:13:00,
2013-06-18 17:14:00,90.5,56.6,29.68,SE,135,4.7,4.7,32,0.00,,,0.00,WUHU216HW,2013-06-18 23:14:00,
2013-06-18 17:17:00,89.6,56.5,29.68,SSE,158,1.8,4.7,33,0.00,,,0.00,WUHU216HW,2013-06-18 23:17:00,
2013-06-18 17:19:00,89.5,56.4,29.68,SE,135,2.5,4.7,33,0.00,,,0.00,WUHU216HW,2013-06-18 23:19:00,
2013-06-18 17:22:00,88.9,56.7,29.67,South,180,2.2,4.7,34,0.00,,,0.00,WUHU216HW,2013-06-18 23:22:00,
2013-06-18 17:24:00,88.9,56.7,29.67,SSW,203,1.8,2.9,34,0.00,,,0.00,WUHU216HW,2013-06-18 23:24:00,
2013-06-18 17:27:00,88.4,56.3,29.67,SSE,158,3.6,3.6,34,0.00,,,0.00,WUHU216HW,2013-06-18 23:27:00,
2013-06-18 17:28:00,88.4,56.3,29.67,SSE,158,3.6,3.6,34,0.00,,,0.00,WUHU216HW,2013-06-18 23:28:00,
2013-06-18 17:29:00,88.2,55.3,29.67,SSE,158,1.1,3.6,33,0.00,,,0.00,WUHU216HW,2013-06-18 23:29:00,
2013-06-18 17:32:00,87.8,55.8,29.67,SSE,158,2.0,3.6,34,0.00,,,0.00,WUHU216HW,2013-06-18 23:32:00,
2013-06-18 17:33:00,87.5,55.5,29.67,SSE,158,1.1,3.6,34,0.00,,,0.00,WUHU216HW,2013-06-18 23:33:00,
2013-06-18 17:34:00,87.5,55.5,29.67,SE,135,2.5,3.6,34,0.00,,,0.00,WUHU216HW,2013-06-18 23:34:00,
2013-06-18 17:37:00,87.1,55.2,29.66,South,180,1.1,3.1,34,0.00,,,0.00,WUHU216HW,2013-06-18 23:37:00,
2013-06-18 17:38:00,87.1,55.2,29.66,SSW,203,0.7,3.1,34,0.00,,,0.00,WUHU216HW,2013-06-18 23:38:00,
2013-06-18 17:39:00,86.9,55.1,29.66,SE,135,1.3,3.1,34,0.00,,,0.00,WUHU216HW,2013-06-18 23:39:00,
2013-06-18 17:43:00,86.6,55.5,29.66,SSE,158,4.0,4.0,35,0.00,,,0.00,WUHU216HW,2013-06-18 23:43:00,
2013-06-18 17:44:00,86.6,55.5,29.65,South,180,2.7,4.0,35,0.00,,,0.00,WUHU216HW,2013-06-18 23:44:00,
2013-06-18 17:48:00,86.2,55.3,29.65,ESE,113,1.8,4.3,35,0.00,,,0.00,WUHU216HW,2013-06-18 23:48:00,
2013-06-18 17:49:00,86.2,55.3,29.65,SSE,158,1.8,4.3,35,0.00,,,0.00,WUHU216HW,2013-06-18 23:49:00,
2013-06-18 17:50:00,86.0,55.1,29.65,SE,135,1.6,4.3,35,0.00,,,0.00,WUHU216HW,2013-06-18 23:50:00,
2013-06-18 17:53:00,86.0,56.7,29.65,SE,135,3.4,4.3,37,0.00,,,0.00,WUHU216HW,2013-06-18 23:53:00,
2013-06-18 17:54:00,85.9,56.5,29.65,SSE,158,2.7,4.3,37,0.00,,,0.00,WUHU216HW,2013-06-18 23:54:00,
2013-06-18 17:55:00,85.7,55.5,29.65,SE,135,3.4,3.8,36,0.00,,,0.00,WUHU216HW,2013-06-18 23:55:00,
2013-06-18 17:58:00,85.7,56.3,29.65,SE,135,3.1,3.8,37,0.00,,,0.00,WUHU216HW,2013-06-18 23:58:00,
2013-06-18 17:59:00,85.7,56.3,29.65,SSE,158,2.0,3.8,37,0.00,,,0.00,WUHU216HW,2013-06-18 23:59:00,
2013-06-18 18:00:00,85.7,56.3,29.65,SSE,158,4.0,4.0,37,0.00,,,0.00,WUHU216HW,2013-06-19 00:00:00,
2013-06-18 18:03:00,85.7,54.7,29.66,SSW,203,4.0,4.7,35,0.00,,,0.00,WUHU216HW,2013-06-19 00:03:00,
2013-06-18 18:04:00,85.7,54.7,29.66,SSW,203,3.4,4.7,35,0.00,,,0.00,WUHU216HW,2013-06-19 00:04:00,
2013-06-18 18:05:00,85.9,54.9,29.65,SE,135,2.2,4.7,35,0.00,,,0.00,WUHU216HW,2013-06-19 00:05:00,
2013-06-18 18:08:00,86.4,55.4,29.65,SSE,158,2.9,4.7,35,0.00,,,0.00,WUHU216HW,2013-06-19 00:08:00,
2013-06-18 18:09:00,86.4,55.4,29.65,SSE,158,2.9,4.7,35,0.00,,,0.00,WUHU216HW,2013-06-19 00:09:00,
2013-06-18 18:10:00,86.8,55.7,29.65,SSE,158,4.0,4.7,35,0.00,,,0.00,WUHU216HW,2013-06-19 00:10:00,
2013-06-18 18:11:00,86.8,55.7,29.65,SSE,158,4.0,4.7,35,0.00,,,0.00,WUHU216HW,2013-06-19 00:11:00,
2013-06-18 18:13:00,87.1,56.8,29.66,South,180,4.0,4.0,36,0.00,,,0.00,WUHU216HW,2013-06-19 00:13:00,
2013-06-18 18:14:00,87.1,56.8,29.66,South,180,4.0,4.0,36,0.00,,,0.00,WUHU216HW,2013-06-19 00:14:00,
2013-06-18 18:15:00,87.1,56.0,29.66,SE,135,3.4,4.9,35,0.00,,,0.00,WUHU216HW,2013-06-19 00:15:00,
2013-06-18 18:16:00,87.1,56.0,29.66,SE,135,3.4,4.9,35,0.00,,,0.00,WUHU216HW,2013-06-19 00:16:00,
2013-06-18 18:18:00,87.3,57.0,29.66,SE,135,5.6,5.6,36,0.00,,,0.00,WUHU216HW,2013-06-19 00:18:00,
2013-06-18 18:19:00,87.3,57.0,29.66,SE,135,5.6,5.6,36,0.00,,,0.00,WUHU216HW,2013-06-19 00:19:00,
2013-06-18 18:20:00,87.1,56.8,29.66,SSE,158,3.4,5.6,36,0.00,,,0.00,WUHU216HW,2013-06-19 00:20:00,
2013-06-18 18:21:00,87.1,56.8,29.66,SSE,158,3.4,5.6,36,0.00,,,0.00,WUHU216HW,2013-06-19 00:21:00,
2013-06-18 18:24:00,87.1,56.8,29.66,ESE,113,3.4,5.6,36,0.00,,,0.00,WUHU216HW,2013-06-19 00:24:00,
2013-06-18 18:25:00,87.1,56.8,29.66,ESE,113,3.4,5.6,36,0.00,,,0.00,WUHU216HW,2013-06-19 00:25:00,
2013-06-18 18:26:00,87.3,57.0,29.66,WSW,248,4.9,7.6,36,0.00,,,0.00,WUHU216HW,2013-06-19 00:26:00,
2013-06-18 18:29:00,87.5,57.2,29.67,SW,225,5.4,7.6,36,0.00,,,0.00,WUHU216HW,2013-06-19 00:29:00,
2013-06-18 18:30:00,87.5,57.2,29.67,SW,225,5.4,7.6,36,0.00,,,0.00,WUHU216HW,2013-06-19 00:30:00,
2013-06-18 18:31:00,88.0,57.6,29.67,SW,225,3.6,7.6,36,0.00,,,0.00,WUHU216HW,2013-06-19 00:31:00,
2013-06-18 18:34:00,88.4,58.7,29.67,SW,225,4.5,7.6,37,0.00,,,0.00,WUHU216HW,2013-06-19 00:34:00,
2013-06-18 18:35:00,88.4,58.7,29.67,SW,225,4.5,5.8,37,0.00,,,0.00,WUHU216HW,2013-06-19 00:35:00,
2013-06-18 18:36:00,88.4,58.7,29.66,SW,225,4.5,5.8,37,0.00,,,0.00,WUHU216HW,2013-06-19 00:36:00,
2013-06-18 18:39:00,88.9,59.1,29.66,SE,135,3.8,5.4,37,0.00,,,0.00,WUHU216HW,2013-06-19 00:39:00,
2013-06-18 18:40:00,88.9,59.1,29.66,SE,135,3.8,5.4,37,0.00,,,0.00,WUHU216HW,2013-06-19 00:40:00,
2013-06-18 18:41:00,88.9,59.1,29.66,SE,135,3.8,5.4,37,0.00,,,0.00,WUHU216HW,2013-06-19 00:41:00,
2013-06-18 18:44:00,89.1,60.0,29.66,SSW,203,2.5,4.5,38,0.00,,,0.00,WUHU216HW,2013-06-19 00:44:00,
2013-06-18 18:45:00,89.1,60.0,29.66,SSW,203,2.5,4.5,38,0.00,,,0.00,WUHU216HW,2013-06-19 00:45:00,
2013-06-18 18:46:00,88.9,60.0,29.66,SW,225,3.6,4.5,38,0.00,,,0.00,WUHU216HW,2013-06-19 00:46:00,
2013-06-18 18:47:00,88.9,60.0,29.66,SW,225,3.6,4.5,38,0.00,,,0.00,WUHU216HW,2013-06-19 00:47:00,
2013-06-18 18:49:00,88.9,60.0,29.66,SW,225,3.6,3.8,38,0.00,,,0.00,WUHU216HW,2013-06-19 00:49:00,
2013-06-18 18:50:00,88.9,60.0,29.66,SW,225,3.6,3.8,38,0.00,,,0.00,WUHU216HW,2013-06-19 00:50:00,
2013-06-18 18:52:00,88.6,59.7,29.66,SW,225,2.0,3.6,38,0.00,,,0.00,WUHU216HW,2013-06-19 00:52:00,
2013-06-18 18:54:00,88.4,59.5,29.65,SSE,158,4.3,4.3,38,0.00,,,0.00,WUHU216HW,2013-06-19 00:54:00,
2013-06-18 18:55:00,88.4,59.5,29.65,SSE,158,4.3,4.3,38,0.00,,,0.00,WUHU216HW,2013-06-19 00:55:00,
2013-06-18 18:57:00,88.2,59.3,29.65,SE,135,1.3,4.3,38,0.00,,,0.00,WUHU216HW,2013-06-19 00:57:00,
2013-06-18 18:59:00,88.0,59.2,29.65,SSE,158,2.5,4.3,38,0.00,,,0.00,WUHU216HW,2013-06-19 00:59:00,
2013-06-18 19:00:00,88.0,59.2,29.65,SSE,158,2.5,4.3,38,0.00,,,0.00,WUHU216HW,2013-06-19 01:00:00,
2013-06-18 19:02:00,87.5,58.7,29.65,WSW,248,1.6,4.3,38,0.00,,,0.00,WUHU216HW,2013-06-19 01:02:00,
2013-06-18 19:04:00,87.3,59.4,29.65,SSW,203,2.9,2.9,39,0.00,,,0.00,WUHU216HW,2013-06-19 01:04:00,
2013-06-18 19:05:00,87.3,59.4,29.65,SSW,203,2.9,2.9,39,0.00,,,0.00,WUHU216HW,2013-06-19 01:05:00,
2013-06-18 19:06:00,87.3,59.4,29.65,SSW,203,2.9,2.9,39,0.00,,,0.00,WUHU216HW,2013-06-19 01:06:00,
2013-06-18 19:07:00,86.9,58.2,29.65,SSE,158,1.1,2.9,38,0.00,,,0.00,WUHU216HW,2013-06-19 01:07:00,
2013-06-18 19:09:00,86.8,58.1,29.65,SSW,203,0.4,2.9,38,0.00,,,0.00,WUHU216HW,2013-06-19 01:09:00,
2013-06-18 19:10:00,86.8,58.1,29.65,SSW,203,0.4,2.9,38,0.00,,,0.00,WUHU216HW,2013-06-19 01:10:00,
2013-06-18 19:11:00,86.8,58.1,29.65,SE,135,2.0,2.9,38,0.00,,,0.00,WUHU216HW,2013-06-19 01:11:00,
2013-06-18 19:12:00,86.8,58.1,29.65,SE,135,2.0,2.9,38,0.00,,,0.00,WUHU216HW,2013-06-19 01:12:00,
2013-06-18 19:14:00,86.8,58.1,29.65,SE,135,2.0,2.9,38,0.00,,,0.00,WUHU216HW,2013-06-19 01:14:00,
2013-06-18 19:15:00,86.8,58.9,29.65,SSW,203,1.3,2.9,39,0.00,,,0.00,WUHU216HW,2013-06-19 01:15:00,
2013-06-18 19:16:00,86.8,58.9,29.65,SSW,203,1.3,2.0,39,0.00,,,0.00,WUHU216HW,2013-06-19 01:16:00,
2013-06-18 19:17:00,86.8,58.9,29.65,SSW,203,1.3,2.0,39,0.00,,,0.00,WUHU216HW,2013-06-19 01:17:00,
2013-06-18 19:18:00,86.8,58.9,29.65,SSW,203,1.3,2.0,39,0.00,,,0.00,WUHU216HW,2013-06-19 01:18:00,
2013-06-18 19:20:00,86.8,58.9,29.65,SSW,203,1.3,2.0,39,0.00,,,0.00,WUHU216HW,2013-06-19 01:20:00,
2013-06-18 19:21:00,86.8,58.9,29.65,SSW,203,1.3,2.0,39,0.00,,,0.00,WUHU216HW,2013-06-19 01:21:00,
2013-06-18 19:22:00,86.8,58.9,29.65,SSW,203,1.3,2.0,39,0.00,,,0.00,WUHU216HW,2013-06-19 01:22:00,
2013-06-18 19:23:00,86.8,58.9,29.65,SSW,203,1.3,2.0,39,0.00,,,0.00,WUHU216HW,2013-06-19 01:23:00,
2013-06-18 19:45:00,85.3,56.8,29.64,SSW,203,2.5,2.5,38,0.00,,,0.00,WUHU216HW,2013-06-19 01:45:00,
2013-06-18 19:50:00,85.1,56.6,29.64,West,270,1.1,2.5,38,0.00,,,0.00,WUHU216HW,2013-06-19 01:50:00,
2013-06-18 19:55:00,85.0,56.5,29.64,South,180,2.5,4.3,38,0.00,,,0.00,WUHU216HW,2013-06-19 01:55:00,
2013-06-18 20:00:00,84.6,56.2,29.63,SSE,158,0.7,4.3,38,0.00,,,0.00,WUHU216HW,2013-06-19 02:00:00,
2013-06-18 20:01:00,84.6,56.2,29.63,SSE,158,0.7,4.3,38,0.00,,,0.00,WUHU216HW,2013-06-19 02:01:00,
2013-06-18 20:05:00,84.1,56.4,29.63,ESE,113,0.4,2.2,39,0.00,,,0.00,WUHU216HW,2013-06-19 02:05:00,
2013-06-18 20:06:00,84.2,56.6,29.63,ESE,113,0.4,2.2,39,0.00,,,0.00,WUHU216HW,2013-06-19 02:06:00,
2013-06-18 20:10:00,83.9,56.4,29.63,WSW,248,0.4,1.8,39,0.00,,,0.00,WUHU216HW,2013-06-19 02:10:00,
2013-06-18 20:11:00,83.9,56.4,29.63,WSW,248,0.4,1.8,39,0.00,,,0.00,WUHU216HW,2013-06-19 02:11:00,
2013-06-18 20:16:00,83.3,55.0,29.63,WSW,248,3.4,3.4,38,0.00,,,0.00,WUHU216HW,2013-06-19 02:16:00,
2013-06-18 20:21:00,82.4,54.2,29.63,ENE,68,1.1,3.4,38,0.00,,,0.00,WUHU216HW,2013-06-19 02:21:00,
2013-06-18 20:22:00,82.4,54.2,29.63,NE,45,0.9,3.4,38,0.00,,,0.00,WUHU216HW,2013-06-19 02:22:00,
2013-06-18 20:26:00,81.5,53.5,29.63,ENE,68,1.1,2.0,38,0.00,,,0.00,WUHU216HW,2013-06-19 02:26:00,
2013-06-18 20:27:00,81.5,53.5,29.63,ENE,68,1.1,2.0,38,0.00,,,0.00,WUHU216HW,2013-06-19 02:27:00,
2013-06-18 20:31:00,81.4,54.1,29.62,ESE,113,3.1,3.1,39,0.00,,,0.00,WUHU216HW,2013-06-19 02:31:00,
2013-06-18 20:32:00,81.4,54.1,29.62,ESE,113,3.1,3.1,39,0.00,,,0.00,WUHU216HW,2013-06-19 02:32:00,
2013-06-18 20:36:00,79.9,53.6,29.62,ESE,113,1.1,3.1,40,0.00,,,0.00,WUHU216HW,2013-06-19 02:36:00,
2013-06-18 20:37:00,79.9,53.6,29.62,ESE,113,1.1,3.1,40,0.00,,,0.00,WUHU216HW,2013-06-19 02:37:00,
2013-06-18 20:41:00,79.4,53.6,29.62,SE,135,4.7,4.7,41,0.00,,,0.00,WUHU216HW,2013-06-19 02:41:00,
2013-06-18 20:42:00,79.4,53.6,29.62,SE,135,4.7,4.7,41,0.00,,,0.00,WUHU216HW,2013-06-19 02:42:00,
2013-06-18 20:47:00,79.4,53.6,29.62,SE,135,4.7,4.7,41,0.00,,,0.00,WUHU216HW,2013-06-19 02:47:00,
2013-06-18 21:00:00,77.2,51.8,29.62,SSE,158,4.5,4.5,41,0.00,,,0.00,WUHU216HW,2013-06-19 03:00:00,
2013-06-18 21:05:00,77.0,51.6,29.62,West,270,2.9,4.5,41,0.00,,,0.00,WUHU216HW,2013-06-19 03:05:00,
2013-06-18 21:06:00,77.0,51.6,29.62,West,270,2.9,4.5,41,0.00,,,0.00,WUHU216HW,2013-06-19 03:06:00,
2013-06-18 21:10:00,76.9,51.4,29.62,NNW,338,0.7,2.9,41,0.00,,,0.00,WUHU216HW,2013-06-19 03:10:00,
2013-06-18 21:11:00,76.9,51.4,29.62,NNW,338,0.7,2.9,41,0.00,,,0.00,WUHU216HW,2013-06-19 03:11:00,
2013-06-18 21:15:00,76.7,51.2,29.62,WNW,293,0.4,1.6,41,0.00,,,0.00,WUHU216HW,2013-06-19 03:15:00,
2013-06-18 21:16:00,76.7,51.2,29.62,WNW,293,0.4,1.6,41,0.00,,,0.00,WUHU216HW,2013-06-19 03:16:00,
2013-06-18 21:20:00,76.3,51.5,29.62,NE,45,0.0,1.6,42,0.00,,,0.00,WUHU216HW,2013-06-19 03:20:00,
2013-06-18 21:21:00,76.3,51.5,29.62,NE,45,0.0,1.6,42,0.00,,,0.00,WUHU216HW,2013-06-19 03:21:00,
2013-06-18 21:25:00,76.0,51.9,29.62,NE,45,0.0,1.3,43,0.00,,,0.00,WUHU216HW,2013-06-19 03:25:00,
2013-06-18 21:26:00,76.0,51.9,29.62,NE,45,0.0,1.3,43,0.00,,,0.00,WUHU216HW,2013-06-19 03:26:00,
2013-06-18 21:30:00,75.4,51.9,29.62,NNW,338,0.2,1.3,44,0.00,,,0.00,WUHU216HW,2013-06-19 03:30:00,
2013-06-18 21:31:00,75.4,51.9,29.62,NNW,338,0.2,1.3,44,0.00,,,0.00,WUHU216HW,2013-06-19 03:31:00,
2013-06-18 21:35:00,74.9,51.4,29.62,NNE,23,0.4,1.1,44,0.00,,,0.00,WUHU216HW,2013-06-19 03:35:00,
2013-06-18 21:36:00,74.9,51.4,29.62,NNE,23,0.4,1.1,44,0.00,,,0.00,WUHU216HW,2013-06-19 03:36:00,
2013-06-18 21:37:00,74.7,51.3,29.62,North,0,0.2,1.1,44,0.00,,,0.00,WUHU216HW,2013-06-19 03:37:00,
2013-06-18 21:40:00,74.2,51.4,29.62,SW,225,0.0,1.1,45,0.00,,,0.00,WUHU216HW,2013-06-19 03:40:00,
2013-06-18 21:41:00,74.2,51.4,29.62,SW,225,0.0,1.1,45,0.00,,,0.00,WUHU216HW,2013-06-19 03:41:00,
2013-06-18 21:42:00,74.2,51.4,29.62,SW,225,0.0,1.1,45,0.00,,,0.00,WUHU216HW,2013-06-19 03:42:00,
2013-06-18 21:45:00,73.8,51.0,29.62,North,0,0.2,1.1,45,0.00,,,0.00,WUHU216HW,2013-06-19 03:45:00,
2013-06-18 21:46:00,73.8,51.0,29.62,North,0,0.2,1.1,45,0.00,,,0.00,WUHU216HW,2013-06-19 03:46:00,
2013-06-18 21:47:00,73.6,50.9,29.62,North,0,0.0,1.1,45,0.00,,,0.00,WUHU216HW,2013-06-19 03:47:00,
2013-06-18 21:51:00,73.3,50.5,29.62,NE,45,0.0,2.0,45,0.00,,,0.00,WUHU216HW,2013-06-19 03:51:00,
2013-06-18 21:52:00,73.3,50.5,29.62,NE,45,0.0,2.0,45,0.00,,,0.00,WUHU216HW,2013-06-19 03:52:00,
2013-06-18 21:56:00,73.1,50.3,29.62,ENE,68,0.0,2.0,45,0.00,,,0.00,WUHU216HW,2013-06-19 03:56:00,
2013-06-18 21:57:00,73.1,50.3,29.62,ENE,68,0.0,2.0,45,0.00,,,0.00,WUHU216HW,2013-06-19 03:57:00,
2013-06-18 22:01:00,72.9,50.2,29.62,East,90,0.4,1.1,45,0.00,,,0.00,WUHU216HW,2013-06-19 04:01:00,
2013-06-18 22:06:00,72.5,49.9,29.63,NNW,338,0.0,0.4,45,0.00,,,0.00,WUHU216HW,2013-06-19 04:06:00,
2013-06-18 22:11:00,72.4,49.7,29.62,SSW,203,0.4,1.1,45,0.00,,,0.00,WUHU216HW,2013-06-19 04:11:00,
2013-06-18 22:12:00,72.4,49.7,29.62,SSW,203,0.4,1.1,45,0.00,,,0.00,WUHU216HW,2013-06-19 04:12:00,
2013-06-18 22:17:00,72.0,49.4,29.62,NNE,23,0.2,3.4,45,0.00,,,0.00,WUHU216HW,2013-06-19 04:17:00,
2013-06-18 22:22:00,71.8,49.8,29.63,WSW,248,0.0,3.4,46,0.00,,,0.00,WUHU216HW,2013-06-19 04:22:00,
2013-06-18 22:27:00,71.5,49.5,29.63,WSW,248,0.0,1.1,46,0.00,,,0.00,WUHU216HW,2013-06-19 04:27:00,
2013-06-18 22:28:00,71.5,49.5,29.63,WSW,248,0.0,1.1,46,0.00,,,0.00,WUHU216HW,2013-06-19 04:28:00,
2013-06-18 22:32:00,70.9,49.0,29.64,ESE,113,0.9,0.9,46,0.00,,,0.00,WUHU216HW,2013-06-19 04:32:00,
2013-06-18 22:33:00,70.9,49.0,29.64,NE,45,0.4,0.9,46,0.00,,,0.00,WUHU216HW,2013-06-19 04:33:00,
2013-06-18 22:34:00,70.9,49.0,29.64,NNW,338,0.7,0.9,46,0.00,,,0.00,WUHU216HW,2013-06-19 04:34:00,
2013-06-18 22:37:00,70.7,48.9,29.64,SW,225,0.4,1.1,46,0.00,,,0.00,WUHU216HW,2013-06-19 04:37:00,
2013-06-18 22:38:00,70.7,48.9,29.64,SW,225,0.4,1.1,46,0.00,,,0.00,WUHU216HW,2013-06-19 04:38:00,
2013-06-18 22:39:00,70.6,48.7,29.64,North,0,2.5,2.5,46,0.00,,,0.00,WUHU216HW,2013-06-19 04:39:00,
2013-06-18 22:42:00,70.6,48.7,29.64,ENE,68,0.4,3.6,46,0.00,,,0.00,WUHU216HW,2013-06-19 04:42:00,
2013-06-18 22:43:00,70.6,48.7,29.64,ENE,68,0.4,3.6,46,0.00,,,0.00,WUHU216HW,2013-06-19 04:43:00,
2013-06-18 22:45:00,70.4,48.5,29.64,ENE,68,0.4,3.6,46,0.00,,,0.00,WUHU216HW,2013-06-19 04:45:00,
2013-06-18 22:48:00,70.6,48.7,29.64,ESE,113,1.1,3.6,46,0.00,,,0.00,WUHU216HW,2013-06-19 04:48:00,
2013-06-18 22:50:00,70.4,48.5,29.64,NE,45,2.9,2.9,46,0.00,,,0.00,WUHU216HW,2013-06-19 04:50:00,
2013-06-18 22:53:00,70.6,48.7,29.64,SSW,203,0.0,2.9,46,0.00,,,0.00,WUHU216HW,2013-06-19 04:53:00,
2013-06-18 22:54:00,70.6,48.7,29.64,NNW,338,1.8,2.9,46,0.00,,,0.00,WUHU216HW,2013-06-19 04:54:00,
2013-06-18 22:55:00,70.6,48.7,29.64,NNW,338,0.2,2.9,46,0.00,,,0.00,WUHU216HW,2013-06-19 04:55:00,
2013-06-18 22:58:00,70.6,48.7,29.64,NNW,338,0.2,2.9,46,0.00,,,0.00,WUHU216HW,2013-06-19 04:58:00,
2013-06-18 22:59:00,70.6,48.7,29.64,North,0,0.2,2.9,46,0.00,,,0.00,WUHU216HW,2013-06-19 04:59:00,
2013-06-18 23:00:00,70.6,48.7,29.64,NNW,338,1.6,1.8,46,0.00,,,0.00,WUHU216HW,2013-06-19 05:00:00,
2013-06-18 23:03:00,70.6,48.1,29.64,WSW,248,0.2,1.8,45,0.00,,,0.00,WUHU216HW,2013-06-19 05:03:00,
2013-06-18 23:04:00,70.6,48.1,29.64,WSW,248,0.2,1.6,45,0.00,,,0.00,WUHU216HW,2013-06-19 05:04:00,
2013-06-18 23:05:00,70.6,48.7,29.64,WSW,248,0.0,1.6,46,0.00,,,0.00,WUHU216HW,2013-06-19 05:05:00,
2013-06-18 23:08:00,70.4,48.5,29.64,SW,225,1.1,1.6,46,0.00,,,0.00,WUHU216HW,2013-06-19 05:08:00,
2013-06-18 23:09:00,70.4,48.5,29.64,SW,225,1.1,1.6,46,0.00,,,0.00,WUHU216HW,2013-06-19 05:09:00,
2013-06-18 23:11:00,70.2,48.3,29.64,WSW,248,1.1,1.1,46,0.00,,,0.00,WUHU216HW,2013-06-19 05:11:00,
2013-06-18 23:13:00,70.2,48.3,29.64,SSE,158,0.7,1.3,46,0.00,,,0.00,WUHU216HW,2013-06-19 05:13:00,
2013-06-18 23:14:00,70.2,48.3,29.64,SSE,158,0.7,1.3,46,0.00,,,0.00,WUHU216HW,2013-06-19 05:14:00,
2013-06-18 23:16:00,70.2,48.3,29.64,SSE,158,0.9,1.3,46,0.00,,,0.00,WUHU216HW,2013-06-19 05:16:00,
2013-06-18 23:18:00,70.0,48.2,29.64,SSW,203,1.1,1.3,46,0.00,,,0.00,WUHU216HW,2013-06-19 05:18:00,
2013-06-18 23:19:00,70.0,48.2,29.64,SSW,203,1.1,1.3,46,0.00,,,0.00,WUHU216HW,2013-06-19 05:19:00,
2013-06-18 23:21:00,70.0,48.8,29.64,WSW,248,1.3,1.3,47,0.00,,,0.00,WUHU216HW,2013-06-19 05:21:00,
2013-06-18 23:23:00,69.7,48.4,29.64,SSE,158,0.4,1.3,47,0.00,,,0.00,WUHU216HW,2013-06-19 05:23:00,
2013-06-18 23:24:00,69.7,48.4,29.64,SSE,158,0.4,1.3,47,0.00,,,0.00,WUHU216HW,2013-06-19 05:24:00,
2013-06-18 23:26:00,69.5,48.9,29.64,WSW,248,1.8,1.8,48,0.00,,,0.00,WUHU216HW,2013-06-19 05:26:00,
2013-06-18 23:28:00,69.3,48.2,29.64,SW,225,0.4,1.8,47,0.00,,,0.00,WUHU216HW,2013-06-19 05:28:00,
2013-06-18 23:29:00,69.3,48.2,29.64,SW,225,0.4,1.8,47,0.00,,,0.00,WUHU216HW,2013-06-19 05:29:00,
2013-06-18 23:31:00,69.1,48.0,29.64,WSW,248,0.0,1.8,47,0.00,,,0.00,WUHU216HW,2013-06-19 05:31:00,
2013-06-18 23:33:00,68.9,47.8,29.64,West,270,0.2,1.8,47,0.00,,,0.00,WUHU216HW,2013-06-19 05:33:00,
2013-06-18 23:34:00,68.9,48.4,29.64,West,270,0.0,1.8,48,0.00,,,0.00,WUHU216HW,2013-06-19 05:34:00,
2013-06-18 23:35:00,68.9,48.4,29.64,West,270,0.0,1.8,48,0.00,,,0.00,WUHU216HW,2013-06-19 05:35:00,
2013-06-18 23:36:00,68.8,48.2,29.64,WSW,248,0.0,0.4,48,0.00,,,0.00,WUHU216HW,2013-06-19 05:36:00,
2013-06-18 23:38:00,68.8,48.2,29.64,SSE,158,1.1,1.1,48,0.00,,,0.00,WUHU216HW,2013-06-19 05:38:00,
2013-06-18 23:39:00,68.8,48.2,29.64,SSE,158,1.1,1.1,48,0.00,,,0.00,WUHU216HW,2013-06-19 05:39:00,
2013-06-18 23:40:00,68.8,48.2,29.64,SSE,158,1.1,1.1,48,0.00,,,0.00,WUHU216HW,2013-06-19 05:40:00,
2013-06-18 23:41:00,68.6,48.7,29.64,SSW,203,0.7,1.6,49,0.00,,,0.00,WUHU216HW,2013-06-19 05:41:00,
2013-06-18 23:43:00,68.6,48.7,29.64,SSE,158,0.9,1.6,49,0.00,,,0.00,WUHU216HW,2013-06-19 05:43:00,
2013-06-18 23:45:00,68.6,48.7,29.64,SSE,158,0.0,1.6,49,0.00,,,0.00,WUHU216HW,2013-06-19 05:45:00,
2013-06-18 23:47:00,68.4,48.5,29.64,SSE,158,1.3,1.6,49,0.00,,,0.00,WUHU216HW,2013-06-19 05:47:00,
2013-06-18 23:49:00,68.4,48.5,29.63,SSE,158,0.9,1.6,49,0.00,,,0.00,WUHU216HW,2013-06-19 05:49:00,
2013-06-18 23:50:00,68.2,48.3,29.63,SSE,158,0.4,1.6,49,0.00,,,0.00,WUHU216HW,2013-06-19 05:50:00,
2013-06-18 23:52:00,68.0,48.8,29.63,SE,135,1.1,1.3,50,0.00,,,0.00,WUHU216HW,2013-06-19 05:52:00,
2013-06-18 23:54:00,68.0,48.8,29.63,SSE,158,0.0,1.3,50,0.00,,,0.00,WUHU216HW,2013-06-19 05:54:00,
2013-06-18 23:55:00,68.0,48.8,29.63,SSE,158,0.0,1.3,50,0.00,,,0.00,WUHU216HW,2013-06-19 05:55:00,
2013-06-18 23:56:00,68.0,48.8,29.63,SSE,158,0.0,1.3,50,0.00,,,0.00,WUHU216HW,2013-06-19 05:56:00,
2013-06-18 23:57:00,67.9,48.6,29.63,SSE,158,0.0,1.3,50,0.00,,,0.00,WUHU216HW,2013-06-19 05:57:00,